FW0644 Weather Reports


Display with metric or nautical units.
time (UTC)temp
F
wind
direction
speed
MPH
gust
MPH
rain 1hr
in
rain 24hr
in
rain mn
in
humidity
%
barometer
mb
20180722110009 70 62 9.0 15.0 0.00 0.29 0.17 93 1007.9
20180722105909 70 66 9.0 15.0 0.00 0.29 0.17 93 1007.9
20180722105808 70 68 9.0 15.0 0.00 0.29 0.17 93 1007.9
20180722105709 70 57 10.0 15.0 0.00 0.29 0.17 93 1007.9
20180722105609 70 56 10.0 15.0 0.00 0.29 0.17 93 1007.9
20180722105509 70 49 10.0 13.0 0.00 0.29 0.17 93 1007.9
20180722105409 70 53 10.0 13.0 0.00 0.29 0.17 93 1007.9
20180722105308 70 54 10.0 13.0 0.00 0.29 0.17 93 1007.9
20180722105208 70 58 9.0 13.0 0.00 0.29 0.17 93 1007.9
20180722105108 70 59 9.0 13.0 0.00 0.29 0.17 93 1007.9
20180722105009 70 62 11.0 13.0 0.00 0.29 0.17 93 1007.9
20180722104909 70 57 11.0 13.0 0.00 0.29 0.17 93 1007.9
20180722104809 70 56 11.0 13.0 0.00 0.29 0.17 93 1007.9
20180722104708 70 61 10.0 12.0 0.00 0.29 0.17 93 1007.9
20180722104608 70 66 10.0 12.0 0.00 0.29 0.17 93 1006.8
20180722104510 70 75 12.0 12.0 0.00 0.29 0.17 93 1006.8
20180722104409 70 70 7.0 14.0 0.00 0.29 0.17 92 1006.8
20180722104309 70 70 7.0 14.0 0.00 0.29 0.17 92 1006.8
20180722104209 70 60 7.0 14.0 0.00 0.29 0.17 93 1006.8
20180722104108 70 57 7.0 14.0 0.00 0.29 0.17 93 1006.8
20180722104008 70 51 7.0 14.0 0.00 0.29 0.17 93 1006.8
20180722103909 70 53 12.0 14.0 0.00 0.29 0.17 92 1006.8
20180722103809 70 50 8.0 14.0 0.00 0.29 0.17 92 1006.8
20180722103709 70 50 8.0 14.0 0.00 0.29 0.17 93 1006.8
20180722103609 70 48 8.0 14.0 0.00 0.29 0.17 93 1006.8
20180722103508 70 44 6.0 14.0 0.00 0.29 0.17 93 1006.8
20180722103408 70 42 10.0 14.0 0.00 0.29 0.17 92 1006.8
20180722103309 70 42 10.0 14.0 0.00 0.29 0.17 92 1006.8
20180722103209 70 42 6.0 13.0 0.00 0.29 0.17 92 1006.8
20180722103109 70 49 8.0 11.0 0.00 0.29 0.17 93 1005.8
20180722103009 70 48 8.0 11.0 0.00 0.29 0.17 93 1005.8
20180722102908 70 47 6.0 10.0 0.00 0.29 0.17 93 1005.8
20180722102808 71 48 6.0 10.0 0.00 0.29 0.17 93 1005.8
20180722102709 71 48 6.0 10.0 0.00 0.29 0.17 93 1005.8
20180722102609 70 46 8.0 12.0 0.00 0.29 0.17 93 1005.8
20180722102509 70 46 8.0 12.0 0.00 0.29 0.17 93 1005.8
20180722102409 70 44 8.0 12.0 0.00 0.29 0.17 93 1005.8
20180722102308 70 44 10.0 12.0 0.00 0.33 0.17 93 1005.8
20180722102208 71 43 6.0 12.0 0.00 0.33 0.17 94 1005.8
20180722102111 70 41 6.0 12.0 0.00 0.33 0.17 93 1005.8
20180722102009 71 41 4.0 12.0 0.00 0.33 0.17 94 1005.8
20180722101909 70 44 8.0 12.0 0.00 0.33 0.17 93 1005.8
20180722101808 70 43 8.0 12.0 0.00 0.33 0.17 93 1005.8
20180722101710 70 42 9.0 12.0 0.00 0.33 0.17 93 1005.8
20180722101608 70 38 6.0 12.0 0.00 0.33 0.17 93 1006.8
20180722101509 71 37 7.0 12.0 0.00 0.33 0.17 93 1006.8
20180722101409 71 36 7.0 12.0 0.00 0.33 0.17 93 1006.8
20180722101309 71 38 6.0 12.0 0.00 0.33 0.17 93 1006.8
20180722101208 71 37 6.0 12.0 0.04 0.33 0.17 93 1006.8
20180722101108 71 40 6.0 12.0 0.04 0.38 0.17 93 1006.8
20180722101010 71 41 5.0 12.0 0.04 0.38 0.17 93 1006.8
20180722100909 71 41 5.0 12.0 0.04 0.38 0.17 93 1006.8
20180722100809 71 43 8.0 12.0 0.04 0.38 0.17 93 1006.8
20180722100711 71 43 6.0 12.0 0.04 0.38 0.17 93 1006.8
20180722100608 71 50 4.0 12.0 0.04 0.38 0.17 92 1006.8
20180722100510 71 52 6.0 12.0 0.04 0.38 0.17 92 1006.8
20180722100408 71 54 10.0 13.0 0.04 0.38 0.17 92 1006.8
20180722100309 71 53 8.0 13.0 0.04 0.38 0.17 93 1006.8
20180722100209 71 52 4.0 13.0 0.04 0.38 0.17 93 1006.8
20180722100109 71 52 6.0 13.0 0.04 0.38 0.17 93 1006.8
20180722100008 71 53 7.0 13.0 0.04 0.38 0.17 92 1006.8
20180722095908 71 54 6.0 13.0 0.04 0.38 0.17 92 1006.8
20180722095809 71 54 7.0 13.0 0.04 0.42 0.17 92 1006.8
20180722095709 71 54 7.0 13.0 0.04 0.42 0.17 92 1006.8
20180722095609 71 51 9.0 13.0 0.04 0.42 0.17 92 1006.8
20180722095509 71 51 9.0 13.0 0.04 0.42 0.17 92 1006.8
20180722095408 71 48 6.0 13.0 0.04 0.42 0.17 92 1006.8
20180722095308 71 50 6.0 13.0 0.04 0.42 0.17 92 1006.8
20180722095208 71 51 9.0 13.0 0.04 0.42 0.17 92 1006.8
20180722095109 71 50 7.0 13.0 0.04 0.42 0.17 92 1006.8
20180722095009 71 48 9.0 13.0 0.04 0.42 0.17 92 1006.8
20180722094909 71 47 9.0 11.0 0.04 0.42 0.17 92 1006.8
20180722094810 71 48 7.0 11.0 0.04 0.42 0.17 92 1006.8
20180722094709 71 47 9.0 11.0 0.04 0.42 0.17 92 1006.8
20180722094609 71 46 7.0 11.0 0.04 0.42 0.17 92 1006.8
20180722094509 71 47 6.0 11.0 0.04 0.42 0.17 92 1006.8
20180722094409 71 50 7.0 11.0 0.04 0.42 0.17 92 1006.8
20180722094308 71 50 6.0 11.0 0.04 0.42 0.17 92 1006.8
20180722094208 71 51 5.0 11.0 0.04 0.42 0.17 92 1006.8
20180722094108 70 55 8.0 11.0 0.04 0.42 0.17 92 1006.8
20180722094010 71 56 7.0 11.0 0.04 0.42 0.17 92 1006.8
20180722093909 71 56 7.0 11.0 0.04 0.42 0.17 92 1006.8
20180722093809 70 56 6.0 11.0 0.04 0.42 0.17 92 1006.8
20180722093708 71 56 6.0 10.0 0.04 0.42 0.17 92 1006.8
20180722093608 70 57 6.0 14.0 0.04 0.42 0.17 92 1006.8
20180722093510 70 60 3.0 14.0 0.04 0.42 0.17 92 1006.8
20180722093409 70 52 4.0 14.0 0.04 0.42 0.17 92 1006.8
20180722093309 70 52 4.0 14.0 0.04 0.42 0.17 91 1006.8
20180722093209 70 50 6.0 14.0 0.04 0.42 0.17 91 1006.8
20180722093108 70 49 7.0 14.0 0.04 0.42 0.17 91 1006.8
20180722093008 70 48 6.0 14.0 0.04 0.42 0.17 90 1006.8
20180722092909 70 47 7.0 14.0 0.04 0.42 0.17 90 1006.8
20180722092809 70 47 8.0 14.0 0.04 0.42 0.17 90 1006.8
20180722092709 70 47 11.0 14.0 0.04 0.42 0.17 90 1006.8
20180722092609 70 41 10.0 14.0 0.04 0.42 0.17 91 1006.8
20180722092508 71 37 10.0 14.0 0.04 0.42 0.17 91 1006.8
20180722092408 71 41 7.0 13.0 0.04 0.42 0.17 91 1006.8
20180722092309 71 38 7.0 13.0 0.04 0.42 0.17 91 1006.8
20180722092209 71 38 7.0 13.0 0.04 0.42 0.17 91 1006.8
20180722092109 71 37 8.0 13.0 0.04 0.42 0.17 92 1006.8
20180722092009 71 37 5.0 13.0 0.04 0.42 0.17 92 1006.8
20180722091908 71 41 7.0 13.0 0.04 0.42 0.17 92 1006.8
20180722091808 71 44 7.0 13.0 0.04 0.42 0.17 92 1006.8
20180722091709 71 43 2.0 13.0 0.08 0.42 0.17 92 1006.8
20180722091609 71 42 2.0 13.0 0.08 0.42 0.17 92 1006.8
20180722091510 71 43 4.0 13.0 0.08 0.42 0.17 92 1006.8
20180722091409 71 48 4.0 13.0 0.08 0.42 0.17 91 1006.8
20180722091308 71 49 9.0 13.0 0.12 0.42 0.17 91 1006.8
20180722091208 71 47 9.0 13.0 0.08 0.38 0.13 91 1006.8
20180722091109 71 46 9.0 11.0 0.08 0.38 0.13 91 1006.8
20180722091009 71 47 6.0 11.0 0.08 0.38 0.13 91 1006.8
20180722090911 71 40 6.0 11.0 0.08 0.38 0.13 91 1006.8
20180722090809 71 38 6.0 11.0 0.08 0.38 0.13 91 1006.8
20180722090708 71 41 5.0 11.0 0.08 0.38 0.13 91 1006.8
20180722090608 71 43 4.0 11.0 0.08 0.38 0.13 91 1006.8
20180722090509 71 45 6.0 11.0 0.08 0.38 0.13 91 1006.8
20180722090409 71 40 8.0 11.0 0.08 0.38 0.13 91 1006.8
20180722090309 71 42 4.0 11.0 0.08 0.38 0.13 91 1006.8
20180722090208 71 45 5.0 11.0 0.08 0.38 0.13 91 1006.8
20180722090108 71 47 7.0 11.0 0.08 0.38 0.13 91 1006.8
20180722090008 71 49 6.0 11.0 0.08 0.38 0.13 91 1006.8
20180722085909 71 53 7.0 11.0 0.08 0.38 0.13 91 1006.8
20180722085809 71 54 7.0 11.0 0.08 0.38 0.13 91 1006.8
20180722085709 71 54 3.0 7.0 0.08 0.38 0.13 92 1006.8
20180722085608 71 55 2.0 7.0 0.08 0.38 0.13 92 1006.8
20180722085508 71 58 2.0 7.0 0.08 0.38 0.13 92 1006.8
20180722085408 71 59 4.0 8.0 0.08 0.38 0.13 91 1006.8
20180722085309 71 60 6.0 8.0 0.08 0.38 0.13 91 1006.8
20180722085209 71 61 5.0 8.0 0.08 0.38 0.13 91 1006.8
20180722085109 71 63 3.0 8.0 0.08 0.38 0.13 91 1006.8
20180722085008 71 58 4.0 11.0 0.08 0.38 0.13 91 1006.8
20180722084908 71 56 2.0 11.0 0.08 0.38 0.13 91 1006.8
20180722084809 71 52 3.0 13.0 0.08 0.38 0.13 91 1006.8
20180722084709 71 50 3.0 13.0 0.08 0.38 0.13 92 1006.8
20180722084609 71 50 4.0 13.0 0.08 0.38 0.13 92 1006.8
20180722084510 71 49 4.0 13.0 0.08 0.38 0.13 92 1006.8
20180722084408 71 48 2.0 13.0 0.08 0.38 0.13 92 1006.8
20180722084308 71 46 5.0 13.0 0.08 0.38 0.13 91 1006.8
20180722084209 71 44 5.0 13.0 0.08 0.38 0.13 92 1006.8
20180722084109 71 43 8.0 13.0 0.08 0.38 0.13 91 1006.8
20180722084009 71 43 9.0 13.0 0.08 0.38 0.13 91 1006.8
20180722083909 71 42 9.0 13.0 0.08 0.38 0.13 92 1006.8
20180722083808 71 42 6.0 9.0 0.08 0.38 0.13 92 1006.8
20180722083708 71 43 5.0 9.0 0.08 0.38 0.13 92 1006.8
20180722083609 71 42 6.0 13.0 0.08 0.38 0.13 92 1006.8
20180722083509 71 42 5.0 13.0 0.08 0.38 0.13 92 1006.8
20180722083409 71 43 7.0 13.0 0.08 0.38 0.13 92 1006.8
20180722083309 71 43 7.0 13.0 0.08 0.38 0.13 92 1006.8
20180722083208 71 45 6.0 13.0 0.08 0.38 0.13 92 1006.8
20180722083109 71 44 6.0 13.0 0.08 0.38 0.13 92 1006.8
20180722083009 71 46 5.0 13.0 0.08 0.38 0.13 92 1006.8
20180722082909 71 49 5.0 13.0 0.08 0.38 0.13 92 1006.8
20180722082809 71 49 9.0 13.0 0.08 0.38 0.13 92 1006.8
20180722082708 71 49 10.0 13.0 0.08 0.38 0.13 92 1006.8
20180722082608 71 48 7.0 10.0 0.08 0.38 0.13 92 1006.8
20180722082508 71 51 6.0 9.0 0.08 0.38 0.13 92 1006.8
20180722082409 71 49 4.0 9.0 0.08 0.38 0.13 92 1006.8
20180722082309 71 50 4.0 9.0 0.08 0.38 0.13 92 1006.8
20180722082209 71 48 5.0 9.0 0.08 0.38 0.13 92 1006.8
20180722082108 71 49 6.0 9.0 0.08 0.38 0.13 91 1006.8
20180722082008 71 47 7.0 9.0 0.08 0.38 0.13 92 1006.8
20180722081909 71 39 5.0 7.0 0.08 0.38 0.13 92 1006.8
20180722081809 71 36 4.0 6.0 0.08 0.38 0.13 92 1006.8
20180722081709 71 44 2.0 6.0 0.04 0.34 0.09 92 1006.8
20180722081609 71 58 2.0 8.0 0.04 0.34 0.09 91 1006.8
20180722081508 71 60 3.0 11.0 0.04 0.34 0.09 91 1006.8
20180722081408 71 66 3.0 11.0 0.00 0.30 0.05 90 1006.8
20180722081309 71 63 4.0 12.0 0.00 0.30 0.05 90 1006.8
20180722081209 72 61 1.0 12.0 0.00 0.30 0.05 90 1006.8
20180722081109 72 63 1.0 12.0 0.00 0.30 0.05 90 1006.8
20180722081009 72 65 3.0 12.0 0.00 0.30 0.05 89 1006.8
20180722080908 71 61 2.0 12.0 0.00 0.30 0.05 89 1006.8
20180722080808 71 58 4.0 12.0 0.00 0.30 0.05 89 1006.8
20180722080709 72 54 7.0 12.0 0.00 0.30 0.05 89 1006.8
20180722080609 72 49 6.0 12.0 0.00 0.30 0.05 88 1006.8
20180722080509 72 46 6.0 12.0 0.00 0.30 0.05 88 1006.8
20180722080409 72 40 7.0 12.0 0.00 0.30 0.05 87 1006.8
20180722080308 72 37 5.0 11.0 0.00 0.30 0.05 87 1006.8
20180722080208 72 37 5.0 11.0 0.00 0.30 0.05 87 1006.8
20180722080109 72 33 5.0 11.0 0.00 0.30 0.05 87 1006.8
20180722080009 72 31 7.0 11.0 0.00 0.30 0.05 86 1006.8
20180722075909 72 18 3.0 11.0 0.00 0.30 0.05 86 1006.8
20180722075809 72 19 3.0 7.0 0.00 0.30 0.05 87 1006.8
20180722075708 72 12 5.0 7.0 0.00 0.30 0.05 86 1006.8
20180722075608 72 7 5.0 7.0 0.00 0.30 0.05 85 1006.8
20180722075508 72 235 4.0 7.0 0.00 0.30 0.05 84 1006.8
20180722075409 73 202 3.0 6.0 0.00 0.30 0.05 84 1006.8
20180722075309 73 156 2.0 6.0 0.00 0.30 0.05 84 1006.8
20180722075209 73 149 1.0 6.0 0.00 0.30 0.05 85 1006.8
20180722075108 73 143 2.0 6.0 0.00 0.30 0.05 84 1006.8
20180722075008 73 136 2.0 6.0 0.00 0.30 0.05 84 1006.8
20180722074909 73 146 3.0 6.0 0.00 0.30 0.05 84 1006.8
20180722074809 73 126 2.0 7.0 0.00 0.30 0.05 84 1006.8
20180722074709 73 122 2.0 7.0 0.00 0.30 0.05 85 1006.8
20180722074609 73 128 3.0 7.0 0.00 0.30 0.05 85 1006.8
20180722074508 73 110 4.0 7.0 0.00 0.30 0.05 85 1006.8
20180722074409 73 112 4.0 7.0 0.00 0.30 0.05 85 1006.8
20180722074309 73 122 4.0 7.0 0.00 0.30 0.05 86 1006.8
20180722074209 73 102 1.0 7.0 0.00 0.30 0.05 86 1006.8
20180722074109 73 90 1.0 7.0 0.00 0.30 0.05 86 1006.8
20180722074008 72 85 3.0 7.0 0.00 0.30 0.05 86 1006.8
20180722073908 72 86 4.0 7.0 0.00 0.30 0.05 86 1006.8
20180722073808 72 104 2.0 6.0 0.00 0.30 0.05 86 1006.8
20180722073709 72 113 2.0 6.0 0.00 0.30 0.05 86 1006.8
20180722073609 72 121 4.0 6.0 0.00 0.30 0.05 86 1006.8
20180722073509 72 145 4.0 6.0 0.00 0.30 0.05 87 1006.8
20180722073408 72 184 3.0 6.0 0.00 0.30 0.05 87 1006.8
20180722073308 72 201 3.0 6.0 0.00 0.30 0.05 88 1006.8
20180722073208 72 207 2.0 6.0 0.00 0.30 0.05 87 1006.8
20180722073109 72 183 2.0 9.0 0.00 0.30 0.05 88 1006.8
20180722073009 72 188 3.0 9.0 0.00 0.30 0.05 88 1006.8
20180722072909 72 203 2.0 9.0 0.00 0.30 0.05 88 1006.8
20180722072808 72 198 1.0 9.0 0.00 0.30 0.05 88 1006.8
20180722072708 72 191 3.0 9.0 0.00 0.30 0.05 88 1006.8
20180722072609 72 198 2.0 9.0 0.00 0.30 0.05 88 1006.8
20180722072509 72 171 1.0 9.0 0.00 0.30 0.05 88 1006.8
20180722072409 71 138 3.0 9.0 0.00 0.30 0.05 88 1006.8
20180722072309 72 110 4.0 11.0 0.00 0.30 0.05 88 1006.8
20180722072209 72 83 6.0 11.0 0.00 0.30 0.05 87 1006.8
20180722072109 72 93 4.0 11.0 0.00 0.30 0.05 88 1006.8
20180722072008 72 61 3.0 11.0 0.00 0.30 0.05 88 1006.8
20180722071909 72 58 2.0 11.0 0.00 0.30 0.05 88 1006.8
20180722071809 72 57 3.0 11.0 0.00 0.30 0.05 88 1006.8
20180722071709 72 50 2.0 11.0 0.00 0.30 0.05 89 1006.8
20180722071608 72 60 5.0 11.0 0.00 0.30 0.05 88 1006.8
20180722071508 72 28 6.0 11.0 0.00 0.30 0.05 88 1006.8
20180722071408 72 317 9.0 11.0 0.00 0.30 0.05 88 1006.8
20180722071309 72 287 3.0 8.0 0.00 0.30 0.05 87 1006.8
20180722071209 72 268 4.0 5.0 0.00 0.30 0.05 87 1006.8
20180722071108 72 285 4.0 5.0 0.00 0.30 0.05 87 1006.8
20180722071008 72 273 4.0 5.0 0.00 0.30 0.05 87 1006.8
20180722070908 72 264 5.0 5.0 0.00 0.30 0.05 87 1006.8
20180722070809 72 281 2.0 5.0 0.00 0.30 0.05 87 1006.8
20180722070709 72 316 2.0 4.0 0.00 0.30 0.05 87 1006.8
20180722070609 72 303 1.0 5.0 0.00 0.30 0.05 87 1006.8
20180722070508 72 293 1.0 5.0 0.00 0.30 0.05 87 1006.8
20180722070408 72 288 3.0 5.0 0.00 0.30 0.05 86 1006.8
20180722070308 72 283 3.0 5.0 0.00 0.30 0.05 87 1006.8
20180722070209 72 278 2.0 5.0 0.00 0.30 0.05 87 1006.8
20180722070109 72 273 2.0 5.0 0.00 0.30 0.05 87 1006.8
20180722070010 72 266 2.0 5.0 0.00 0.30 0.05 87 1006.8
20180722065908 72 192 2.0 10.0 0.00 0.30 0.05 87 1006.8
20180722065808 72 175 2.0 10.0 0.00 0.30 0.05 88 1006.8
20180722065709 72 162 2.0 13.0 0.00 0.30 0.05 88 1006.8
20180722065608 72 149 1.0 13.0 0.00 0.30 0.05 88 1006.8
20180722065509 72 142 2.0 14.0 0.00 0.30 0.05 88 1006.8
20180722065409 72 140 2.0 14.0 0.00 0.30 0.05 88 1006.8
20180722065308 72 146 2.0 14.0 0.00 0.30 0.05 88 1006.8
20180722065208 71 150 3.0 14.0 0.00 0.30 0.05 88 1006.8
20180722065109 71 149 3.0 14.0 0.00 0.30 0.05 88 1006.8
20180722065010 71 150 7.0 14.0 0.00 0.30 0.05 88 1006.8
20180722064909 71 150 4.0 14.0 0.00 0.30 0.05 88 1006.8
20180722064809 71 153 8.0 14.0 0.00 0.30 0.05 88 1006.8
20180722064708 71 155 6.0 14.0 0.00 0.30 0.05 88 1006.8
20180722064609 71 162 12.0 14.0 0.00 0.30 0.05 88 1006.8
20180722064509 71 178 6.0 11.0 0.00 0.30 0.05 88 1006.8
20180722064409 71 184 6.0 11.0 0.00 0.30 0.05 88 1006.8
20180722064309 71 186 8.0 11.0 0.00 0.30 0.05 88 1006.8
20180722064209 71 172 4.0 10.0 0.00 0.30 0.05 88 1006.8
20180722064108 71 173 3.0 10.0 0.00 0.30 0.05 88 1006.8
20180722064008 71 165 3.0 10.0 0.00 0.30 0.05 88 1006.8
20180722063908 71 170 3.0 10.0 0.00 0.30 0.05 88 1006.8
20180722063809 72 154 2.0 10.0 0.00 0.30 0.05 89 1006.8
20180722063709 71 145 2.0 10.0 0.00 0.30 0.05 89 1006.8
20180722063608 71 149 2.0 10.0 0.00 0.30 0.05 88 1006.8
20180722063508 71 142 2.0 10.0 0.00 0.30 0.05 88 1006.8
20180722063408 71 150 5.0 10.0 0.00 0.30 0.05 88 1006.8
20180722063309 71 157 9.0 10.0 0.00 0.30 0.05 88 1006.8
20180722063209 71 176 3.0 6.0 0.00 0.30 0.05 89 1006.8
20180722063109 71 184 3.0 6.0 0.00 0.30 0.05 89 1006.8
20180722063008 71 200 2.0 6.0 0.00 0.30 0.05 89 1006.8
20180722062908 71 221 2.0 6.0 0.00 0.30 0.05 89 1006.8
20180722062808 71 221 2.0 6.0 0.00 0.30 0.05 89 1006.8
20180722062708 71 222 2.0 6.0 0.00 0.30 0.05 89 1006.8
20180722062609 71 228 2.0 6.0 0.00 0.30 0.05 90 1006.8
20180722062509 71 242 3.0 6.0 0.00 0.30 0.05 90 1006.8
20180722062408 71 241 3.0 6.0 0.00 0.30 0.05 90 1006.8
20180722062308 71 308 3.0 8.0 0.00 0.30 0.05 90 1006.8
20180722062208 71 308 3.0 8.0 0.00 0.30 0.05 90 1006.8
20180722062109 71 6 3.0 10.0 0.00 0.30 0.05 90 1006.8
20180722062009 71 52 3.0 10.0 0.00 0.30 0.05 90 1006.8
20180722061909 71 64 5.0 10.0 0.00 0.30 0.05 90 1006.8
20180722061808 71 63 3.0 10.0 0.00 0.30 0.05 90 1006.8
20180722061708 71 67 4.0 10.0 0.00 0.30 0.05 90 1006.8
20180722061609 71 67 4.0 10.0 0.00 0.30 0.05 90 1005.8
20180722061510 71 70 3.0 10.0 0.00 0.30 0.05 90 1005.8
20180722061409 71 81 5.0 10.0 0.00 0.30 0.05 89 1005.8
20180722061309 71 90 3.0 10.0 0.00 0.30 0.05 89 1005.8
20180722061208 71 87 8.0 10.0 0.00 0.30 0.05 89 1005.8
20180722061108 71 90 7.0 10.0 0.00 0.30 0.05 89 1005.8
20180722061010 71 92 8.0 10.0 0.00 0.30 0.05 89 1005.8
20180722060909 71 80 5.0 10.0 0.00 0.30 0.05 89 1005.8
20180722060809 71 75 3.0 10.0 0.00 0.30 0.05 89 1005.8
20180722060709 71 67 3.0 10.0 0.00 0.30 0.05 89 1005.8
20180722060608 71 66 3.0 10.0 0.00 0.30 0.05 89 1005.8
20180722060509 71 59 3.0 10.0 0.00 0.30 0.05 89 1005.8
20180722060408 71 51 5.0 10.0 0.00 0.30 0.05 88 1005.8
20180722060309 71 41 6.0 10.0 0.00 0.30 0.05 88 1005.8
20180722060209 71 35 5.0 10.0 0.00 0.30 0.05 88 1005.8
20180722060108 71 14 4.0 10.0 0.00 0.30 0.05 88 1006.8
20180722060008 71 14 8.0 10.0 0.00 0.30 0.05 88 1006.8
20180722055909 71 337 2.0 6.0 0.00 0.30 0.05 89 1006.8
20180722055809 71 346 2.0 6.0 0.00 0.30 0.05 89 1006.8
20180722055709 71 18 4.0 6.0 0.00 0.30 0.05 90 1006.8
20180722055609 71 345 3.0 6.0 0.00 0.30 0.05 90 1006.8
20180722055508 71 270 3.0 5.0 0.00 0.30 0.05 90 1006.8
20180722055408 71 262 2.0 5.0 0.00 0.30 0.05 90 1006.8
20180722055308 71 27 3.0 6.0 0.00 0.30 0.05 91 1006.8
20180722055209 71 31 3.0 6.0 0.00 0.30 0.05 91 1006.8
20180722055109 71 53 1.0 6.0 0.00 0.30 0.05 91 1006.8
20180722055009 71 87 1.0 6.0 0.00 0.30 0.05 91 1006.8
20180722054908 71 94 3.0 6.0 0.00 0.30 0.05 91 1006.8
20180722054808 71 66 2.0 6.0 0.00 0.30 0.05 91 1006.8
20180722054708 71 60 2.0 6.0 0.00 0.30 0.05 91 1006.8
20180722054609 71 77 2.0 6.0 0.00 0.30 0.05 91 1006.8
20180722054509 70 108 2.0 6.0 0.00 0.30 0.05 91 1006.8
20180722054409 70 110 4.0 6.0 0.00 0.30 0.05 91 1006.8
20180722054308 70 205 4.0 6.0 0.00 0.30 0.05 92 1006.8
20180722054208 71 193 2.0 6.0 0.00 0.30 0.05 92 1006.8
20180722054108 70 192 3.0 6.0 0.00 0.30 0.05 92 1006.8
20180722054010 70 208 2.0 6.0 0.00 0.30 0.05 93 1006.8
20180722053909 70 200 2.0 6.0 0.00 0.30 0.05 93 1006.8
20180722053809 70 208 2.0 7.0 0.00 0.30 0.05 93 1006.8
20180722053708 70 213 2.0 7.0 0.00 0.30 0.05 93 1006.8
20180722053608 70 216 2.0 7.0 0.00 0.30 0.05 93 1006.8
20180722053510 70 220 2.0 7.0 0.00 0.30 0.05 93 1006.8
20180722053409 70 214 4.0 7.0 0.00 0.30 0.05 93 1006.8
20180722053309 70 207 3.0 7.0 0.00 0.30 0.05 93 1006.8
20180722053210 70 205 1.0 7.0 0.00 0.30 0.05 93 1006.8
20180722053108 70 203 2.0 7.0 0.00 0.30 0.05 93 1005.8
20180722053008 70 199 2.0 7.0 0.00 0.30 0.05 93 1005.8
20180722052909 69 206 4.0 7.0 0.00 0.30 0.05 93 1005.8
20180722052809 69 199 2.0 9.0 0.00 0.30 0.05 93 1005.8
20180722052709 70 202 2.0 9.0 0.00 0.30 0.05 93 1005.8
20180722052609 69 191 1.0 9.0 0.00 0.30 0.05 93 1005.8
20180722052508 69 189 2.0 9.0 0.00 0.30 0.05 93 1005.8
20180722052408 69 185 1.0 9.0 0.00 0.30 0.05 93 1005.8
20180722052308 69 182 3.0 9.0 0.00 0.30 0.05 93 1005.8
20180722052209 69 190 2.0 9.0 0.00 0.30 0.05 93 1005.8
20180722052109 69 195 2.0 9.0 0.00 0.30 0.05 93 1005.8
20180722052008 69 207 2.0 9.0 0.00 0.30 0.05 92 1005.8
20180722051908 69 197 2.0 9.0 0.00 0.30 0.05 92 1005.8
20180722051808 69 185 3.0 9.0 0.00 0.30 0.05 93 1005.8
20180722051709 69 189 2.0 5.0 0.00 0.30 0.05 93 1005.8
20180722051609 69 193 1.0 5.0 0.00 0.30 0.05 93 1005.8
20180722051509 69 197 3.0 5.0 0.00 0.30 0.05 93 1005.8
20180722051408 69 168 2.0 9.0 0.00 0.30 0.05 93 1005.8
20180722051308 69 126 3.0 9.0 0.00 0.30 0.05 93 1005.8
20180722051208 69 111 3.0 9.0 0.00 0.30 0.05 93 1005.8
20180722051109 70 90 3.0 9.0 0.00 0.30 0.05 93 1005.8
20180722051009 69 74 2.0 9.0 0.00 0.30 0.05 93 1005.8
20180722050909 69 66 2.0 9.0 0.00 0.30 0.05 93 1005.8
20180722050808 69 63 2.0 11.0 0.00 0.30 0.05 93 1005.8
20180722050708 69 65 2.0 11.0 0.00 0.30 0.05 93 1005.8
20180722050608 69 60 1.0 11.0 0.00 0.30 0.05 93 1005.8
20180722050509 69 57 5.0 11.0 0.00 0.30 0.05 93 1005.8
20180722050409 69 53 4.0 11.0 0.00 0.30 0.05 93 1005.8
20180722050309 69 59 2.0 11.0 0.00 0.30 0.05 93 1005.8
20180722050208 69 61 4.0 11.0 0.00 0.30 0.05 93 1005.8
20180722050108 69 62 2.0 11.0 0.00 0.30 0.05 93 1005.8
20180722050017 69 64 4.0 11.0 0.00 0.30 0.05 93 1005.8
20180722045909 69 70 8.0 11.0 0.00 0.30 0.05 93 1005.8
20180722045809 69 78 3.0 11.0 0.00 0.30 0.05 93 1005.8
20180722045709 69 70 3.0 7.0 0.00 0.30 0.05 93 1005.8
20180722045608 69 87 6.0 7.0 0.00 0.30 0.05 93 1005.8
20180722045508 69 94 5.0 7.0 0.00 0.30 0.05 93 1005.8
20180722045409 69 91 3.0 7.0 0.00 0.30 0.05 93 1005.8
20180722045309 69 59 2.0 5.0 0.00 0.30 0.05 93 1005.8
20180722045209 69 201 2.0 5.0 0.00 0.30 0.05 93 1005.8
20180722045109 69 242 1.0 5.0 0.00 0.30 0.05 93 1005.8
20180722045008 69 267 2.0 5.0 0.00 0.30 0.05 93 1005.8
20180722044908 69 277 3.0 5.0 0.00 0.30 0.05 94 1005.8
20180722044809 69 257 3.0 5.0 0.00 0.30 0.05 94 1005.8
20180722044709 69 273 2.0 6.0 0.00 0.30 0.05 94 1005.8
20180722044609 69 274 3.0 6.0 0.00 0.30 0.05 94 1005.8
20180722044508 69 296 3.0 7.0 0.00 0.30 0.05 94 1005.8
20180722044408 69 290 4.0 8.0 0.00 0.30 0.05 94 1005.8
20180722044308 69 281 2.0 9.0 0.00 0.30 0.05 94 1005.8
20180722044209 69 306 3.0 9.0 0.00 0.30 0.05 94 1005.8
20180722044109 69 7 3.0 9.0 0.00 0.30 0.05 94 1005.8
20180722044009 69 89 3.0 9.0 0.00 0.30 0.05 94 1005.8
20180722043908 69 91 4.0 9.0 0.00 0.30 0.05 94 1005.8
20180722043809 69 77 4.0 9.0 0.00 0.30 0.05 94 1005.8
20180722043708 69 75 3.0 9.0 0.00 0.30 0.05 94 1005.8
20180722043608 69 73 4.0 9.0 0.00 0.30 0.05 95 1005.8
20180722043509 69 72 4.0 9.0 0.00 0.30 0.05 95 1005.8
20180722043409 69 81 6.0 9.0 0.00 0.30 0.05 95 1005.8
20180722043308 69 85 4.0 9.0 0.00 0.30 0.05 95 1005.8
20180722043208 69 83 6.0 9.0 0.00 0.30 0.05 95 1005.8
20180722043108 69 74 4.0 9.0 0.00 0.30 0.05 95 1005.8
20180722043008 69 58 5.0 9.0 0.00 0.30 0.05 95 1005.8
20180722042909 69 56 5.0 9.0 0.00 0.30 0.05 95 1005.8
20180722042809 69 59 6.0 9.0 0.00 0.30 0.05 95 1005.8
20180722042708 69 61 4.0 9.0 0.00 0.30 0.05 95 1005.8
20180722042608 69 60 5.0 9.0 0.00 0.30 0.05 95 1005.8
20180722042508 69 146 4.0 7.0 0.00 0.30 0.05 95 1005.8
20180722042408 69 184 4.0 7.0 0.00 0.30 0.05 95 1005.8
20180722042309 69 210 4.0 7.0 0.00 0.30 0.05 95 1005.8
20180722042209 69 234 4.0 7.0 0.00 0.30 0.05 95 1005.8
20180722042108 69 239 3.0 6.0 0.00 0.30 0.05 95 1005.8
20180722042008 69 241 3.0 6.0 0.00 0.30 0.05 95 1005.8
20180722041908 69 228 4.0 6.0 0.00 0.30 0.05 95 1005.8
20180722041809 69 225 3.0 6.0 0.00 0.30 0.05 95 1005.8
20180722041709 69 222 2.0 6.0 0.00 0.30 0.05 95 1005.8
20180722041609 69 225 2.0 6.0 0.00 0.30 0.05 95 1005.8
20180722041508 69 231 3.0 6.0 0.00 0.30 0.05 95 1005.8
20180722041409 69 229 3.0 6.0 0.00 0.30 0.05 95 1005.8
20180722041309 69 236 4.0 6.0 0.00 0.30 0.05 95 1005.8
20180722041209 69 232 3.0 6.0 0.00 0.30 0.05 95 1005.8
20180722041109 69 237 3.0 6.0 0.00 0.30 0.05 95 1005.8
20180722041008 69 235 2.0 6.0 0.00 0.30 0.05 95 1005.8
20180722040908 69 244 3.0 7.0 0.00 0.30 0.05 95 1005.8
20180722040808 69 323 2.0 7.0 0.00 0.30 0.05 95 1005.8
20180722040709 69 14 4.0 7.0 0.00 0.30 0.05 95 1005.8
20180722040609 69 51 3.0 7.0 0.00 0.30 0.05 95 1005.8
20180722040509 69 60 3.0 7.0 0.00 0.30 0.05 95 1005.8
20180722040408 69 46 2.0 7.0 0.00 0.30 0.05 95 1005.8
20180722040308 69 53 2.0 7.0 0.00 0.30 0.05 95 1005.8
20180722040208 68 60 2.0 7.0 0.00 0.30 0.05 95 1005.8
20180722040109 68 59 4.0 8.0 0.00 0.30 0.05 95 1005.8
20180722040009 68 63 4.0 8.0 0.00 0.30 0.05 95 1005.8
20180722035909 68 58 5.0 8.0 0.00 0.30 0.05 95 1005.8
20180722035808 68 42 5.0 12.0 0.00 0.30 0.05 95 1005.8
20180722035708 68 30 6.0 12.0 0.00 0.30 0.05 95 1005.8
20180722035608 68 23 4.0 12.0 0.00 0.30 0.05 95 1005.8
20180722035509 68 23 3.0 12.0 0.00 0.30 0.05 95 1005.8
20180722035409 68 24 2.0 12.0 0.00 0.30 0.05 95 1005.8
20180722035309 68 28 5.0 12.0 0.00 0.30 0.05 95 1005.8
20180722035208 68 21 3.0 12.0 0.00 0.30 0.05 95 1005.8
20180722035108 68 26 3.0 12.0 0.00 0.30 0.05 95 1005.8
20180722035009 68 31 5.0 12.0 0.00 0.30 0.05 95 1005.8
20180722034909 68 32 6.0 12.0 0.00 0.30 0.05 95 1005.8
20180722034809 68 41 7.0 12.0 0.00 0.30 0.05 95 1005.8
20180722034709 68 55 4.0 9.0 0.00 0.30 0.05 95 1005.8
20180722034608 68 56 2.0 9.0 0.00 0.30 0.05 95 1005.8
20180722034508 68 50 2.0 9.0 0.00 0.30 0.05 95 1005.8
20180722034408 68 50 4.0 9.0 0.00 0.30 0.05 95 1005.8
20180722034309 68 50 2.0 9.0 0.00 0.30 0.05 95 1005.8
20180722034209 68 59 2.0 9.0 0.00 0.30 0.05 95 1005.8
20180722034109 68 70 5.0 9.0 0.00 0.30 0.05 95 1005.8
20180722034008 68 74 6.0 9.0 0.00 0.30 0.05 95 1005.8
20180722033908 68 72 6.0 9.0 0.00 0.30 0.05 95 1005.8
20180722033808 68 80 4.0 9.0 0.00 0.30 0.05 95 1005.8
20180722033709 68 83 7.0 10.0 0.00 0.30 0.05 95 1005.8
20180722033609 68 77 5.0 10.0 0.00 0.30 0.05 95 1005.8
20180722033509 68 80 4.0 10.0 0.00 0.30 0.05 95 1005.8
20180722033408 68 79 3.0 10.0 0.00 0.30 0.05 95 1005.8
20180722033309 68 79 4.0 10.0 0.00 0.30 0.05 95 1005.8
20180722033209 68 75 4.0 10.0 0.00 0.30 0.05 95 1005.8
20180722033108 68 66 4.0 10.0 0.00 0.30 0.05 95 1005.8
20180722033009 68 66 5.0 10.0 0.00 0.30 0.05 95 1005.8
20180722032908 68 62 5.0 10.0 0.00 0.30 0.05 95 1005.8
20180722032808 68 58 7.0 10.0 0.00 0.30 0.05 95 1005.8
20180722032708 68 55 9.0 10.0 0.00 0.30 0.05 95 1005.8
20180722032609 68 55 5.0 11.0 0.00 0.30 0.05 95 1005.8
20180722032509 68 57 5.0 13.0 0.00 0.30 0.05 95 1005.8
20180722032409 68 57 3.0 13.0 0.00 0.30 0.05 95 1005.8
20180722032308 68 55 4.0 13.0 0.00 0.30 0.05 95 1005.8
20180722032208 68 56 6.0 13.0 0.00 0.30 0.05 95 1005.8
20180722032108 68 56 6.0 13.0 0.00 0.30 0.05 95 1005.8
20180722032009 68 51 6.0 13.0 0.00 0.30 0.05 95 1005.8
20180722031909 68 51 4.0 13.0 0.00 0.30 0.05 95 1005.8
20180722031809 68 50 5.0 13.0 0.00 0.30 0.05 95 1005.8
20180722031708 68 51 6.0 13.0 0.00 0.30 0.05 95 1005.8
20180722031608 68 49 6.0 13.0 0.00 0.30 0.05 95 1005.8
20180722031508 68 47 6.0 13.0 0.00 0.30 0.05 95 1005.8
20180722031408 68 46 4.0 9.0 0.00 0.30 0.05 95 1005.8
20180722031309 68 45 7.0 9.0 0.00 0.30 0.05 95 1005.8
20180722031209 68 45 5.0 9.0 0.00 0.30 0.05 95 1005.8
20180722031108 68 37 4.0 7.0 0.00 0.30 0.05 95 1005.8
20180722031008 68 39 4.0 7.0 0.00 0.30 0.05 95 1005.8
20180722030908 68 38 4.0 7.0 0.00 0.30 0.05 95 1005.8
20180722030809 68 41 4.0 6.0 0.00 0.30 0.05 95 1005.8
20180722030709 68 43 5.0 6.0 0.00 0.30 0.05 95 1005.8
20180722030609 68 43 4.0 6.0 0.00 0.30 0.05 95 1005.8
20180722030508 68 47 4.0 6.0 0.00 0.30 0.05 95 1005.8
20180722030408 69 46 2.0 7.0 0.00 0.30 0.05 95 1005.8
20180722030308 68 47 4.0 7.0 0.00 0.30 0.05 95 1005.8
20180722030209 68 47 3.0 7.0 0.00 0.30 0.05 95 1005.8
20180722030109 68 52 2.0 8.0 0.00 0.30 0.05 95 1004.8
20180722030008 68 52 3.0 8.0 0.00 0.30 0.05 95 1004.8
20180722025908 68 52 4.0 8.0 0.00 0.30 0.05 95 1004.8
20180722025808 68 54 4.0 8.0 0.00 0.30 0.05 95 1004.8
20180722025708 68 51 4.0 8.0 0.00 0.30 0.05 95 1004.8
20180722025609 68 45 2.0 8.0 0.00 0.30 0.05 95 1004.8
20180722025509 68 43 5.0 8.0 0.00 0.30 0.05 95 1004.8
20180722025408 68 41 4.0 8.0 0.00 0.30 0.05 95 1004.8
20180722025308 68 38 7.0 8.0 0.00 0.30 0.05 95 1004.8
20180722025208 68 37 7.0 8.0 0.00 0.30 0.05 95 1004.8
20180722025108 68 34 6.0 7.0 0.00 0.30 0.05 95 1004.8
20180722025009 68 36 6.0 7.0 0.00 0.30 0.05 95 1004.8
20180722024909 68 41 4.0 7.0 0.00 0.30 0.05 95 1004.8
20180722024808 68 44 3.0 7.0 0.00 0.30 0.05 95 1004.8
20180722024708 68 46 2.0 7.0 0.00 0.30 0.05 95 1004.8
20180722024608 68 52 2.0 7.0 0.00 0.30 0.05 95 1005.8
20180722024509 68 59 4.0 8.0 0.00 0.30 0.05 95 1005.8
20180722024409 68 56 5.0 8.0 0.00 0.30 0.05 95 1005.8
20180722024309 68 62 4.0 8.0 0.00 0.30 0.05 95 1005.8
20180722024208 68 61 4.0 9.0 0.00 0.30 0.05 95 1005.8
20180722024108 68 62 3.0 9.0 0.00 0.30 0.05 95 1005.8
20180722024008 68 60 6.0 9.0 0.00 0.30 0.05 95 1005.8
20180722023909 68 60 7.0 9.0 0.00 0.30 0.05 95 1005.8
20180722023809 68 60 6.0 9.0 0.00 0.30 0.05 95 1005.8
20180722023709 68 63 5.0 10.0 0.00 0.30 0.05 95 1005.8
20180722023608 68 58 6.0 10.0 0.00 0.30 0.05 95 1005.8
20180722023508 68 51 3.0 10.0 0.00 0.30 0.05 95 1005.8
20180722023408 68 52 4.0 10.0 0.00 0.30 0.05 95 1005.8
20180722023309 68 52 8.0 10.0 0.00 0.30 0.05 95 1005.8
20180722023209 68 50 5.0 10.0 0.00 0.30 0.05 95 1005.8
20180722023109 68 51 4.0 10.0 0.00 0.30 0.05 95 1005.8
20180722023008 68 49 3.0 10.0 0.00 0.30 0.05 95 1005.8
20180722022908 68 44 6.0 10.0 0.00 0.30 0.05 95 1005.8
20180722022808 68 38 7.0 10.0 0.00 0.30 0.05 95 1005.8
20180722022708 68 30 4.0 7.0 0.00 0.30 0.05 95 1005.8
20180722022609 68 26 2.0 7.0 0.00 0.30 0.05 95 1005.8
20180722022509 68 29 2.0 7.0 0.00 0.30 0.05 95 1005.8
20180722022408 68 32 2.0 7.0 0.00 0.30 0.05 95 1005.8
20180722022308 68 34 2.0 7.0 0.00 0.30 0.05 95 1005.8
20180722022208 68 41 2.0 7.0 0.00 0.30 0.05 95 1005.8
20180722022109 68 36 2.0 5.0 0.00 0.30 0.05 95 1005.8
20180722022009 68 33 2.0 5.0 0.00 0.30 0.05 95 1005.8
20180722021908 68 35 2.0 6.0 0.00 0.30 0.05 95 1005.8
20180722021808 68 37 2.0 6.0 0.00 0.30 0.05 95 1005.8
20180722021708 68 43 3.0 6.0 0.00 0.30 0.05 95 1005.8
20180722021609 68 40 2.0 6.0 0.00 0.30 0.05 95 1005.8
20180722021509 68 40 3.0 6.0 0.00 0.30 0.05 95 1005.8
20180722021409 68 40 4.0 6.0 0.00 0.30 0.05 95 1005.8
20180722021308 68 41 2.0 6.0 0.00 0.30 0.05 95 1005.8
20180722021208 68 43 2.0 6.0 0.00 0.30 0.05 95 1005.8
20180722021108 68 45 4.0 7.0 0.00 0.30 0.05 95 1005.8
20180722021008 68 46 4.0 7.0 0.00 0.30 0.05 95 1005.8
20180722020909 68 47 4.0 7.0 0.00 0.30 0.05 95 1005.8
20180722020809 68 48 5.0 7.0 0.00 0.30 0.05 95 1005.8
20180722020708 68 44 5.0 7.0 0.00 0.30 0.05 95 1005.8
20180722020608 68 45 4.0 7.0 0.00 0.30 0.05 95 1005.8
20180722020508 68 45 4.0 7.0 0.00 0.30 0.05 95 1005.8
20180722020408 68 44 5.0 7.0 0.00 0.30 0.05 95 1005.8
20180722020309 68 44 5.0 7.0 0.00 0.30 0.05 95 1005.8
20180722020209 68 41 5.0 7.0 0.00 0.30 0.05 95 1005.8
20180722020108 68 39 2.0 6.0 0.00 0.30 0.05 95 1004.8
20180722020008 68 42 5.0 6.0 0.00 0.30 0.05 95 1004.8
20180722015908 68 47 4.0 8.0 0.00 0.30 0.05 95 1004.8
20180722015809 68 48 4.0 8.0 0.00 0.30 0.05 95 1004.8
20180722015709 68 49 4.0 8.0 0.00 0.30 0.05 95 1004.8
20180722015609 68 49 3.0 8.0 0.00 0.30 0.05 95 1004.8
20180722015508 68 53 3.0 8.0 0.00 0.30 0.05 95 1004.8
20180722015408 68 53 4.0 8.0 0.00 0.30 0.05 95 1004.8
20180722015308 68 53 4.0 8.0 0.00 0.30 0.05 95 1004.8
20180722015209 68 53 3.0 8.0 0.00 0.30 0.05 95 1004.8
20180722015109 68 51 3.0 8.0 0.00 0.30 0.05 95 1004.8
20180722015009 68 50 6.0 8.0 0.00 0.30 0.05 95 1004.8
20180722014908 68 48 6.0 8.0 0.00 0.30 0.05 95 1004.8
20180722014808 68 44 5.0 8.0 0.00 0.30 0.05 95 1004.8
20180722014708 68 44 5.0 8.0 0.00 0.30 0.05 95 1004.8
20180722014608 68 43 4.0 8.0 0.00 0.30 0.05 95 1005.8
20180722014509 68 39 5.0 8.0 0.00 0.30 0.05 95 1005.8
20180722014408 68 33 3.0 6.0 0.00 0.30 0.05 95 1005.8
20180722014308 68 35 3.0 6.0 0.00 0.30 0.05 95 1005.8
20180722014208 68 32 3.0 6.0 0.00 0.30 0.05 95 1005.8
20180722014108 68 33 4.0 6.0 0.00 0.30 0.05 95 1005.8
20180722014009 68 38 4.0 5.0 0.00 0.30 0.05 95 1005.8
20180722013911 68 43 3.0 7.0 0.00 0.30 0.05 95 1005.8
20180722013808 68 45 3.0 7.0 0.00 0.30 0.05 95 1005.8
20180722013708 68 38 3.0 7.0 0.00 0.30 0.05 95 1005.8
20180722013608 68 32 3.0 7.0 0.00 0.30 0.05 95 1005.8
20180722013510 68 32 2.0 7.0 0.00 0.30 0.05 95 1005.8
20180722013409 68 34 1.0 7.0 0.00 0.30 0.05 95 1005.8
20180722013309 68 31 1.0 7.0 0.00 0.30 0.05 95 1005.8
20180722013208 68 33 2.0 8.0 0.00 0.30 0.05 95 1005.8
20180722013108 68 38 6.0 8.0 0.00 0.30 0.05 95 1004.8
20180722013008 68 39 6.0 8.0 0.00 0.30 0.05 95 1004.8
20180722012908 68 36 5.0 8.0 0.00 0.30 0.05 95 1004.8
20180722012809 68 38 4.0 8.0 0.00 0.30 0.05 95 1004.8
20180722012709 68 41 3.0 8.0 0.00 0.30 0.05 95 1004.8
20180722012608 68 45 3.0 8.0 0.00 0.30 0.05 95 1004.8
20180722012508 68 47 4.0 8.0 0.00 0.30 0.05 95 1004.8
20180722012408 68 45 4.0 8.0 0.00 0.30 0.05 95 1004.8
20180722012309 68 46 6.0 8.0 0.00 0.30 0.05 95 1004.8
20180722012208 68 47 6.0 8.0 0.00 0.30 0.05 95 1004.8
20180722012109 68 48 5.0 8.0 0.00 0.30 0.05 95 1004.8
20180722012008 68 41 5.0 8.0 0.00 0.30 0.05 95 1004.8
20180722011908 68 39 6.0 8.0 0.00 0.30 0.05 95 1004.8
20180722011809 68 39 6.0 7.0 0.00 0.30 0.05 95 1004.8
20180722011709 68 37 9.0 7.0 0.00 0.30 0.05 95 1004.8
20180722011608 68 46 4.0 7.0 0.00 0.30 0.05 95 1005.8
20180722011509 68 46 4.0 7.0 0.00 0.30 0.05 95 1005.8
20180722011408 68 48 3.0 7.0 0.00 0.30 0.05 95 1005.8
20180722011308 68 49 3.0 7.0 0.00 0.30 0.05 95 1005.8
20180722011208 68 49 5.0 7.0 0.00 0.30 0.05 95 1005.8
20180722011109 68 51 3.0 6.0 0.00 0.30 0.05 95 1005.8
20180722011010 68 54 2.0 6.0 0.00 0.30 0.05 95 1005.8
20180722010908 68 59 4.0 6.0 0.00 0.30 0.05 95 1005.8
20180722010808 68 59 4.0 6.0 0.00 0.30 0.05 95 1005.8
20180722010708 68 61 5.0 6.0 0.00 0.30 0.05 95 1005.8
20180722010608 68 59 5.0 6.0 0.00 0.30 0.05 95 1005.8
20180722010509 68 60 3.0 6.0 0.00 0.30 0.05 95 1005.8
20180722010409 68 60 3.0 6.0 0.00 0.30 0.05 95 1005.8
20180722010308 68 62 3.0 6.0 0.00 0.30 0.05 95 1005.8
20180722010208 68 63 4.0 6.0 0.00 0.30 0.05 95 1005.8
20180722010108 68 60 3.0 6.0 0.00 0.30 0.05 95 1005.8
20180722010008 68 59 4.0 6.0 0.00 0.30 0.05 95 1005.8
20180722005909 68 57 4.0 6.0 0.00 0.30 0.05 95 1005.8
20180722005809 68 54 4.0 6.0 0.00 0.30 0.05 95 1005.8
20180722005708 68 40 6.0 6.0 0.00 0.30 0.05 95 1005.8
20180722005608 68 40 3.0 6.0 0.00 0.30 0.05 95 1005.8
20180722005508 68 34 4.0 6.0 0.00 0.30 0.05 95 1005.8
20180722005408 68 24 2.0 6.0 0.00 0.30 0.05 95 1005.8
20180722005309 68 22 1.0 6.0 0.00 0.30 0.05 94 1005.8
20180722005209 68 24 0.0 6.0 0.00 0.30 0.05 94 1005.8
20180722005108 68 43 2.0 6.0 0.00 0.30 0.05 94 1005.8
20180722005008 68 59 3.0 6.0 0.00 0.30 0.05 94 1005.8
20180722004908 68 59 3.0 6.0 0.00 0.30 0.05 94 1005.8
20180722004808 68 69 4.0 6.0 0.00 0.30 0.05 94 1005.8
20180722004709 68 97 4.0 6.0 0.00 0.30 0.05 94 1005.8
20180722004609 68 129 5.0 6.0 0.00 0.30 0.05 94 1005.8
20180722004508 68 143 3.0 4.0 0.00 0.30 0.05 94 1005.8
20180722004408 68 131 2.0 4.0 0.00 0.30 0.05 94 1005.8
20180722004308 68 121 2.0 4.0 0.00 0.30 0.05 94 1005.8
20180722004208 68 99 3.0 5.0 0.00 0.30 0.05 94 1005.8
20180722004109 68 115 3.0 5.0 0.00 0.30 0.05 94 1005.8
20180722004009 68 136 3.0 5.0 0.00 0.30 0.05 94 1005.8
20180722003908 68 159 7.0 5.0 0.00 0.30 0.05 95 1005.8
20180722003808 68 167 3.0 5.0 0.00 0.30 0.05 95 1005.8
20180722003708 68 167 3.0 5.0 0.00 0.30 0.05 95 1005.8
20180722003608 68 93 4.0 5.0 0.00 0.30 0.05 95 1005.8
20180722003509 68 73 3.0 6.0 0.00 0.30 0.05 95 1005.8
20180722003409 68 83 3.0 6.0 0.00 0.30 0.05 95 1005.8
20180722003308 68 71 5.0 6.0 0.00 0.30 0.05 95 1005.8
20180722003208 68 82 5.0 6.0 0.00 0.30 0.05 95 1005.8
20180722003108 68 76 3.0 6.0 0.00 0.30 0.05 95 1005.8
20180722003009 68 68 3.0 6.0 0.00 0.30 0.05 95 1005.8
20180722002909 68 68 3.0 8.0 0.00 0.30 0.05 95 1005.8
20180722002808 68 66 3.0 8.0 0.00 0.30 0.05 95 1005.8
20180722002710 68 58 4.0 8.0 0.00 0.30 0.05 95 1005.8
20180722002608 68 58 6.0 8.0 0.00 0.30 0.05 95 1005.8
20180722002508 68 61 4.0 8.0 0.00 0.30 0.05 95 1005.8
20180722002409 68 54 4.0 8.0 0.00 0.30 0.05 95 1005.8
20180722002309 68 51 4.0 8.0 0.00 0.30 0.05 95 1005.8
20180722002208 68 49 3.0 8.0 0.00 0.30 0.05 95 1005.8
20180722002108 68 44 5.0 8.0 0.00 0.30 0.05 95 1005.8
20180722002008 68 44 4.0 8.0 0.00 0.30 0.05 95 1005.8
20180722001909 68 36 5.0 8.0 0.00 0.30 0.05 96 1005.8
20180722001809 68 39 5.0 8.0 0.00 0.30 0.05 96 1005.8
20180722001709 68 44 4.0 8.0 0.00 0.30 0.05 96 1005.8
20180722001608 68 46 2.0 6.0 0.00 0.30 0.05 96 1005.8
20180722001508 68 50 2.0 7.0 0.00 0.30 0.05 96 1005.8
20180722001408 68 54 3.0 7.0 0.00 0.30 0.05 96 1005.8
20180722001309 68 55 5.0 7.0 0.00 0.30 0.05 96 1005.8
20180722001209 68 55 5.0 7.0 0.00 0.30 0.05 96 1005.8
20180722001109 68 59 5.0 7.0 0.00 0.30 0.05 96 1005.8
20180722001008 68 66 2.0 7.0 0.00 0.30 0.05 96 1005.8
20180722000908 68 65 4.0 7.0 0.00 0.30 0.05 96 1005.8
20180722000808 68 64 3.0 7.0 0.00 0.30 0.05 96 1005.8
20180722000708 68 66 3.0 7.0 0.00 0.30 0.05 96 1005.8
20180722000609 68 61 5.0 7.0 0.00 0.30 0.05 96 1005.8
20180722000509 68 58 5.0 7.0 0.00 0.30 0.05 96 1005.8
20180722000408 68 54 5.0 7.0 0.00 0.30 0.05 96 1005.8
20180722000308 68 52 6.0 6.0 0.00 0.30 0.05 96 1005.8
20180722000208 68 50 6.0 6.0 0.00 0.30 0.05 96 1005.8
20180722000108 68 44 6.0 6.0 0.00 0.30 0.05 96 1004.8
20180722000009 68 39 4.0 5.0 0.00 0.30 0.05 96 1004.8
20180721235909 68 40 4.0 5.0 0.00 0.30 0.05 96 1004.8
20180721235808 68 37 3.0 4.0 0.00 0.30 0.05 96 1004.8
20180721235708 68 34 3.0 4.0 0.00 0.30 0.05 96 1004.8
20180721235608 68 38 3.0 4.0 0.00 0.30 0.05 96 1004.8
20180721235509 68 43 2.0 6.0 0.00 0.30 0.05 96 1004.8
20180721235409 69 46 2.0 6.0 0.00 0.30 0.05 96 1004.8
20180721235308 69 45 2.0 6.0 0.00 0.30 0.05 96 1004.8
20180721235208 69 52 1.0 6.0 0.00 0.30 0.05 96 1004.8
20180721235108 69 55 2.0 6.0 0.00 0.30 0.05 96 1004.8
20180721235008 69 55 1.0 6.0 0.00 0.30 0.05 96 1004.8
20180721234908 69 52 3.0 6.0 0.00 0.30 0.05 96 1004.8
20180721234809 69 53 3.0 6.0 0.00 0.30 0.05 96 1004.8
20180721234708 69 53 3.0 6.0 0.00 0.30 0.05 96 1004.8
20180721234608 69 54 3.0 6.0 0.00 0.30 0.05 96 1005.8
20180721234508 69 52 2.0 6.0 0.00 0.30 0.05 96 1005.8
20180721234408 69 53 2.0 6.0 0.00 0.30 0.05 96 1005.8
20180721234309 68 54 3.0 6.0 0.00 0.30 0.05 96 1005.8
20180721234209 68 50 3.0 6.0 0.00 0.30 0.05 96 1005.8
20180721234108 68 48 3.0 6.0 0.00 0.30 0.05 96 1005.8
20180721234008 69 48 4.0 6.0 0.00 0.30 0.05 96 1005.8
20180721233908 69 49 2.0 6.0 0.00 0.30 0.05 96 1005.8
20180721233808 68 48 3.0 6.0 0.00 0.30 0.05 96 1005.8
20180721233709 68 48 4.0 6.0 0.00 0.30 0.05 96 1005.8
20180721233609 68 50 4.0 6.0 0.00 0.30 0.05 96 1005.8
20180721233508 68 50 4.0 5.0 0.00 0.30 0.05 96 1005.8
20180721233408 69 50 4.0 5.0 0.00 0.30 0.05 96 1005.8
20180721233308 69 50 3.0 5.0 0.00 0.30 0.05 96 1005.8
20180721233208 68 50 4.0 5.0 0.00 0.30 0.05 96 1005.8
20180721233109 68 50 3.0 5.0 0.00 0.30 0.05 96 1005.8
20180721233009 68 45 3.0 4.0 0.00 0.30 0.05 96 1005.8
20180721232908 69 41 2.0 4.0 0.00 0.30 0.05 96 1005.8
20180721232808 69 32 2.0 4.0 0.00 0.30 0.05 96 1005.8
20180721232708 69 31 2.0 4.0 0.00 0.30 0.05 96 1005.8
20180721232609 69 27 2.0 4.0 0.00 0.30 0.05 96 1005.8
20180721232509 68 26 0.0 4.0 0.00 0.30 0.05 96 1005.8
20180721232409 69 24 1.0 4.0 0.00 0.30 0.05 96 1005.8
20180721232308 69 23 1.0 4.0 0.00 0.30 0.05 96 1005.8
20180721232208 69 23 2.0 4.0 0.00 0.30 0.05 96 1005.8
20180721232108 69 21 2.0 4.0 0.00 0.30 0.05 96 1005.8
20180721232008 68 23 2.0 4.0 0.00 0.30 0.05 96 1005.8
20180721231909 68 20 2.0 4.0 0.00 0.30 0.05 96 1005.8
20180721231808 69 26 1.0 3.0 0.00 0.30 0.05 96 1005.8
20180721231708 68 21 0.0 3.0 0.00 0.30 0.05 96 1005.8
20180721231608 68 20 1.0 3.0 0.00 0.30 0.05 96 1005.8
20180721231509 68 16 1.0 3.0 0.00 0.30 0.05 96 1005.8
20180721231409 68 14 2.0 3.0 0.00 0.30 0.05 96 1005.8
20180721231309 69 8 1.0 2.0 0.00 0.30 0.05 96 1005.8
20180721231208 68 6 0.0 3.0 0.00 0.30 0.05 96 1005.8
20180721231108 68 5 1.0 3.0 0.00 0.30 0.05 96 1005.8
20180721231008 68 5 1.0 3.0 0.00 0.30 0.05 96 1005.8
20180721230908 68 9 1.0 3.0 0.00 0.30 0.05 96 1005.8
20180721230809 68 8 1.0 3.0 0.00 0.30 0.05 96 1005.8
20180721230709 69 13 1.0 3.0 0.00 0.30 0.05 96 1005.8
20180721230608 69 15 1.0 3.0 0.00 0.30 0.05 96 1005.8
20180721230508 69 21 1.0 4.0 0.00 0.30 0.05 96 1005.8
20180721230408 69 19 2.0 4.0 0.00 0.30 0.05 96 1005.8
20180721230308 69 20 2.0 4.0 0.00 0.30 0.05 96 1005.8
20180721230209 68 26 1.0 4.0 0.00 0.30 0.05 95 1005.8
20180721230109 69 31 1.0 4.0 0.00 0.30 0.05 95 1004.8
20180721230008 69 38 2.0 4.0 0.00 0.30 0.05 95 1004.8
20180721225908 68 34 2.0 4.0 0.00 0.30 0.05 95 1004.8
20180721225808 68 35 2.0 4.0 0.00 0.30 0.05 95 1004.8
20180721225708 69 35 2.0 4.0 0.00 0.30 0.05 95 1004.8
20180721225609 68 38 3.0 4.0 0.00 0.30 0.05 95 1004.8
20180721225509 69 34 1.0 2.0 0.00 0.30 0.05 95 1004.8
20180721225408 69 41 0.0 2.0 0.00 0.30 0.05 95 1004.8
20180721225308 69 45 2.0 2.0 0.00 0.30 0.05 95 1004.8
20180721225208 69 47 2.0 2.0 0.00 0.30 0.05 95 1004.8
20180721225108 69 50 1.0 2.0 0.00 0.30 0.05 95 1004.8
20180721225009 69 45 1.0 2.0 0.00 0.30 0.05 95 1004.8
20180721224909 69 58 0.0 3.0 0.00 0.30 0.05 95 1004.8
20180721224808 69 62 0.0 3.0 0.00 0.30 0.05 95 1004.8
20180721224708 69 62 2.0 3.0 0.00 0.30 0.05 95 1004.8
20180721224609 69 63 1.0 3.0 0.00 0.30 0.05 96 1004.8
20180721224509 69 59 1.0 3.0 0.00 0.30 0.05 96 1004.8
20180721224409 69 57 0.0 3.0 0.00 0.30 0.05 96 1004.8
20180721224308 69 56 0.0 3.0 0.00 0.30 0.05 96 1004.8
20180721224208 69 57 1.0 3.0 0.00 0.30 0.05 95 1004.8
20180721224108 69 56 1.0 3.0 0.00 0.30 0.05 95 1004.8
20180721224008 68 58 1.0 3.0 0.00 0.30 0.05 95 1004.8
20180721223909 69 59 1.0 3.0 0.00 0.30 0.05 95 1004.8
20180721223809 69 60 0.0 3.0 0.00 0.30 0.05 95 1004.8
20180721223708 68 59 0.0 3.0 0.00 0.30 0.05 95 1004.8
20180721223608 68 56 1.0 4.0 0.00 0.30 0.05 95 1004.8
20180721223508 68 56 2.0 4.0 0.00 0.30 0.05 96 1004.8
20180721223408 68 57 2.0 4.0 0.00 0.30 0.05 96 1004.8
20180721223309 68 59 1.0 4.0 0.00 0.30 0.05 96 1004.8
20180721223209 68 63 1.0 4.0 0.00 0.30 0.05 96 1004.8
20180721223108 68 60 1.0 4.0 0.00 0.30 0.05 96 1005.8
20180721223009 68 56 1.0 4.0 0.00 0.30 0.05 96 1005.8
20180721222908 68 43 3.0 4.0 0.00 0.30 0.05 96 1005.8
20180721222808 68 43 3.0 4.0 0.00 0.30 0.05 96 1005.8
20180721222709 68 43 3.0 4.0 0.00 0.30 0.05 96 1005.8
20180721222609 68 45 1.0 4.0 0.00 0.30 0.05 96 1005.8
20180721222508 68 51 1.0 4.0 0.00 0.30 0.05 96 1005.8
20180721222408 68 49 2.0 6.0 0.00 0.30 0.05 96 1005.8
20180721222308 68 50 2.0 6.0 0.00 0.30 0.05 96 1005.8
20180721222209 68 47 2.0 6.0 0.00 0.30 0.05 96 1005.8
20180721222109 68 44 2.0 6.0 0.00 0.30 0.05 96 1005.8
20180721222009 68 44 2.0 6.0 0.00 0.30 0.05 96 1005.8
20180721221908 68 48 3.0 6.0 0.00 0.30 0.05 96 1005.8
20180721221808 68 51 2.0 6.0 0.00 0.30 0.05 96 1005.8
20180721221708 68 49 3.0 6.0 0.00 0.30 0.05 96 1005.8
20180721221608 68 48 4.0 6.0 0.00 0.30 0.05 96 1005.8
20180721221510 68 39 6.0 6.0 0.00 0.30 0.05 96 1005.8
20180721221409 68 36 5.0 6.0 0.00 0.30 0.05 96 1005.8
20180721221308 68 32 4.0 6.0 0.00 0.30 0.05 96 1005.8
20180721221208 68 33 3.0 7.0 0.00 0.30 0.05 96 1005.8
20180721221108 68 35 3.0 7.0 0.00 0.30 0.05 96 1005.8
20180721221009 68 35 3.0 7.0 0.00 0.30 0.05 96 1005.8
20180721220909 68 33 3.0 7.0 0.00 0.30 0.05 96 1005.8
20180721220809 68 35 4.0 7.0 0.00 0.30 0.05 96 1005.8
20180721220708 68 35 4.0 7.0 0.00 0.30 0.05 96 1005.8
20180721220608 68 33 3.0 7.0 0.00 0.30 0.05 96 1005.8
20180721220510 68 37 3.0 7.0 0.00 0.30 0.05 96 1005.8
20180721220408 68 35 4.0 8.0 0.00 0.30 0.05 96 1005.8
20180721220309 68 34 6.0 8.0 0.00 0.30 0.05 96 1005.8
20180721220209 68 34 4.0 8.0 0.00 0.30 0.05 96 1005.8
20180721220108 68 33 3.0 8.0 0.00 0.30 0.05 96 1004.8
20180721220008 68 30 3.0 8.0 0.00 0.30 0.05 96 1004.8
20180721215908 68 28 3.0 8.0 0.00 0.30 0.05 96 1004.8
20180721215808 68 25 4.0 8.0 0.00 0.30 0.05 96 1004.8
20180721215709 68 22 3.0 8.0 0.00 0.30 0.05 96 1004.8
20180721215608 68 22 3.0 8.0 0.00 0.30 0.05 96 1004.8
20180721215508 68 22 6.0 8.0 0.00 0.30 0.05 96 1004.8
20180721215409 68 19 4.0 8.0 0.05 0.30 0.05 96 1004.8
20180721215308 68 18 4.0 8.0 0.05 0.30 0.05 96 1004.8
20180721215209 68 18 4.0 8.0 0.05 0.30 0.05 96 1004.8
20180721215109 68 18 5.0 8.0 0.05 0.30 0.05 96 1004.8
20180721215008 68 20 5.0 8.0 0.05 0.30 0.05 96 1004.8
20180721214909 68 21 5.0 8.0 0.05 0.30 0.05 96 1004.8
20180721214808 68 25 4.0 7.0 0.05 0.30 0.05 96 1004.8
20180721214708 68 26 4.0 7.0 0.05 0.30 0.05 96 1004.8
20180721214608 68 27 4.0 7.0 0.05 0.30 0.05 96 1005.8
20180721214509 68 22 4.0 8.0 0.05 0.30 0.05 96 1005.8
20180721214408 68 21 4.0 8.0 0.05 0.30 0.05 96 1005.8
20180721214308 68 19 5.0 9.0 0.05 0.30 0.05 96 1005.8
20180721214208 68 15 3.0 9.0 0.05 0.30 0.05 96 1005.8
20180721214108 68 15 4.0 9.0 0.05 0.30 0.05 96 1005.8
20180721214009 68 14 2.0 9.0 0.05 0.30 0.05 96 1005.8
20180721213909 68 14 5.0 9.0 0.05 0.30 0.05 96 1005.8
20180721213808 68 11 4.0 9.0 0.05 0.30 0.05 96 1005.8
20180721213708 68 13 4.0 9.0 0.05 0.30 0.05 96 1005.8
20180721213608 68 11 4.0 9.0 0.05 0.30 0.05 96 1005.8
20180721213508 68 15 4.0 9.0 0.05 0.30 0.05 96 1005.8
20180721213409 68 20 6.0 9.0 0.05 0.30 0.05 96 1005.8
20180721213309 68 24 4.0 9.0 0.05 0.30 0.05 96 1005.8
20180721213208 68 31 3.0 6.0 0.05 0.30 0.05 96 1005.8
20180721213108 68 30 3.0 6.0 0.05 0.30 0.05 96 1005.8
20180721213009 68 29 4.0 6.0 0.05 0.30 0.05 96 1005.8
20180721212909 68 28 4.0 6.0 0.05 0.30 0.05 96 1005.8
20180721212808 68 30 4.0 6.0 0.05 0.30 0.05 96 1005.8
20180721212709 68 27 6.0 6.0 0.05 0.30 0.05 96 1005.8
20180721212608 68 27 4.0 6.0 0.05 0.30 0.05 96 1005.8
20180721212508 68 27 4.0 6.0 0.05 0.30 0.05 96 1005.8
20180721212408 68 26 5.0 6.0 0.05 0.30 0.05 96 1005.8
20180721212308 68 27 3.0 6.0 0.05 0.30 0.05 96 1005.8
20180721212209 68 20 4.0 6.0 0.05 0.30 0.05 96 1005.8
20180721212108 68 20 4.0 6.0 0.05 0.30 0.05 96 1005.8
20180721212008 68 20 4.0 6.0 0.05 0.30 0.05 96 1005.8
20180721211908 68 22 4.0 6.0 0.05 0.30 0.05 96 1005.8
20180721211808 68 23 2.0 5.0 0.05 0.30 0.05 96 1005.8
20180721211709 68 22 4.0 6.0 0.05 0.30 0.05 96 1005.8
20180721211612 68 18 3.0 6.0 0.05 0.30 0.05 96 1004.8
20180721211508 68 16 4.0 6.0 0.05 0.30 0.05 96 1004.8
20180721211408 68 13 4.0 6.0 0.05 0.30 0.05 96 1004.8
20180721211308 68 8 4.0 6.0 0.05 0.30 0.05 96 1004.8
20180721211208 68 10 3.0 6.0 0.05 0.30 0.05 96 1004.8
20180721211108 68 12 3.0 6.0 0.05 0.30 0.05 96 1004.8
20180721211009 68 13 4.0 6.0 0.05 0.30 0.05 96 1004.8
20180721210908 68 11 4.0 6.0 0.05 0.30 0.05 96 1004.8
20180721210808 68 8 4.0 6.0 0.05 0.30 0.05 96 1004.8
20180721210708 68 6 4.0 6.0 0.05 0.30 0.05 96 1004.8
20180721210608 68 7 4.0 6.0 0.05 0.30 0.05 96 1004.8
20180721210508 68 4 4.0 8.0 0.05 0.30 0.05 96 1004.8
20180721210408 68 6 4.0 8.0 0.05 0.30 0.05 96 1004.8
20180721210307 68 7 4.0 8.0 0.05 0.30 0.05 96 1004.8
20180721210206 68 8 3.0 9.0 0.05 0.30 0.05 96 1004.8
20180721210103 68 9 4.0 9.0 0.05 0.30 0.05 96 1005.8
20180721210008 68 11 4.0 9.0 0.05 0.30 0.05 96 1005.8
20180721205908 68 12 5.0 9.0 0.05 0.30 0.05 96 1005.8
20180721205809 68 15 4.0 9.0 0.05 0.30 0.05 96 1005.8
20180721205708 68 20 3.0 9.0 0.05 0.30 0.05 96 1005.8
20180721205608 68 22 5.0 9.0 0.05 0.30 0.05 96 1005.8
20180721205508 68 23 6.0 9.0 0.05 0.30 0.05 96 1005.8
20180721205408 68 23 6.0 9.0 0.00 0.25 0.00 96 1005.8
20180721205309 68 25 6.0 9.0 0.00 0.25 0.00 96 1005.8
20180721205209 68 27 5.0 8.0 0.00 0.25 0.00 96 1005.8
20180721205108 68 28 5.0 8.0 0.00 0.25 0.00 96 1005.8
20180721205008 68 25 6.0 8.0 0.00 0.25 0.00 96 1005.8
20180721204908 68 27 6.0 8.0 0.04 0.25 0.00 96 1005.8
20180721204808 68 28 4.0 8.0 0.08 0.25 0.00 96 1005.8
20180721204709 68 24 5.0 8.0 0.08 0.25 0.00 96 1005.8
20180721204608 68 23 4.0 8.0 0.08 0.25 0.00 96 1005.8
20180721204508 68 22 5.0 8.0 0.08 0.25 0.00 96 1005.8
20180721204408 68 24 6.0 8.0 0.08 0.25 0.00 96 1005.8
20180721204308 68 19 4.0 8.0 0.08 0.25 0.00 96 1005.8
20180721204208 68 20 5.0 8.0 0.08 0.25 0.00 96 1005.8
20180721204109 68 19 6.0 8.0 0.08 0.25 0.00 96 1005.8
20180721204008 68 19 5.0 8.0 0.08 0.25 0.00 96 1005.8
20180721203908 68 19 6.0 8.0 0.08 0.25 0.00 96 1005.8
20180721203808 68 19 5.0 8.0 0.08 0.25 0.00 96 1005.8
20180721203708 68 25 5.0 8.0 0.08 0.25 0.00 96 1005.8
20180721203608 68 26 4.0 8.0 0.08 0.25 0.00 96 1005.8
20180721203508 68 26 5.0 8.0 0.08 0.25 0.00 96 1005.8
20180721203408 68 26 5.0 8.0 0.08 0.25 0.00 96 1005.8
20180721203308 68 32 4.0 8.0 0.08 0.25 0.00 96 1005.8
20180721203208 68 31 5.0 8.0 0.08 0.25 0.00 96 1005.8
20180721203108 68 33 3.0 8.0 0.08 0.25 0.00 96 1005.8
20180721203008 68 29 4.0 8.0 0.08 0.25 0.00 96 1005.8
20180721202909 68 28 4.0 8.0 0.08 0.25 0.00 96 1005.8
20180721202808 68 26 5.0 8.0 0.08 0.25 0.00 96 1005.8
20180721202708 68 25 5.0 6.0 0.08 0.25 0.00 96 1005.8
20180721202608 68 27 4.0 6.0 0.08 0.25 0.00 96 1005.8
20180721202508 68 26 4.0 6.0 0.08 0.25 0.00 96 1005.8
20180721202409 68 26 5.0 6.0 0.08 0.25 0.00 96 1005.8
20180721202309 68 21 4.0 6.0 0.08 0.25 0.00 96 1005.8
20180721202208 69 18 3.0 6.0 0.08 0.25 0.00 96 1005.8
20180721202108 69 16 2.0 6.0 0.08 0.25 0.00 96 1005.8
20180721202008 69 21 4.0 6.0 0.08 0.25 0.00 96 1005.8
20180721201908 69 25 5.0 6.0 0.08 0.25 0.00 96 1005.8
20180721201808 69 29 4.0 6.0 0.08 0.25 0.00 96 1005.8
20180721201709 69 30 4.0 9.0 0.08 0.25 0.00 96 1005.8
20180721201608 69 27 4.0 9.0 0.08 0.25 0.00 96 1005.8
20180721201508 69 29 3.0 9.0 0.08 0.25 0.00 96 1005.8
20180721201408 69 33 3.0 9.0 0.08 0.25 0.00 96 1005.8
20180721201308 69 32 5.0 9.0 0.08 0.25 0.00 96 1005.8
20180721201208 69 30 5.0 9.0 0.08 0.25 0.00 96 1005.8
20180721201108 69 28 4.0 9.0 0.08 0.25 0.00 95 1005.8
20180721201008 69 24 4.0 9.0 0.08 0.25 0.00 95 1005.8
20180721200908 69 24 4.0 9.0 0.08 0.25 0.00 95 1005.8
20180721200808 69 25 6.0 9.0 0.08 0.25 0.00 95 1005.8
20180721200708 69 22 4.0 6.0 0.08 0.25 0.00 95 1005.8
20180721200609 69 30 3.0 9.0 0.08 0.25 0.00 95 1005.8
20180721200508 69 40 2.0 10.0 0.08 0.25 0.00 95 1005.8
20180721200408 69 46 4.0 10.0 0.08 0.25 0.00 95 1005.8
20180721200308 69 54 3.0 10.0 0.08 0.25 0.00 95 1005.8
20180721200208 69 55 3.0 10.0 0.08 0.25 0.00 95 1005.8
20180721200109 69 54 4.0 13.0 0.08 0.25 0.00 95 1004.8
20180721200034 69 57 5.0 13.0 0.08 0.25 0.00 95 1004.8
20180721195908 69 56 4.0 13.0 0.08 0.25 0.25 95 1004.8
20180721195808 69 51 7.0 13.0 0.08 0.25 0.25 95 1004.8
20180721195708 69 47 7.0 13.0 0.08 0.25 0.25 95 1004.8
20180721195608 69 40 7.0 13.0 0.08 0.25 0.25 95 1004.8
20180721195508 69 32 4.0 13.0 0.08 0.25 0.25 95 1004.8
20180721195409 69 28 7.0 13.0 0.08 0.25 0.25 95 1004.8
20180721195308 69 19 7.0 13.0 0.08 0.25 0.25 94 1004.8
20180721195208 69 20 10.0 13.0 0.08 0.25 0.25 94 1004.8
20180721195108 69 19 6.0 10.0 0.08 0.25 0.25 93 1004.8
20180721195008 69 14 6.0 9.0 0.08 0.25 0.25 93 1004.8
20180721194910 69 17 6.0 9.0 0.04 0.21 0.21 93 1004.8
20180721194809 69 22 4.0 9.0 0.00 0.17 0.17 92 1004.8
20180721194708 69 26 4.0 9.0 0.00 0.17 0.17 92 1004.8
20180721194608 69 29 6.0 9.0 0.00 0.17 0.17 91 1005.8
20180721194508 69 37 6.0 9.0 0.00 0.17 0.17 91 1005.8
20180721194408 69 35 6.0 8.0 0.00 0.17 0.17 91 1005.8
20180721194309 69 37 4.0 8.0 0.00 0.17 0.17 91 1005.8
20180721194209 69 37 4.0 6.0 0.00 0.17 0.17 90 1005.8
20180721194108 69 36 3.0 6.0 0.00 0.17 0.17 90 1005.8
20180721194008 69 35 3.0 6.0 0.00 0.17 0.17 90 1005.8
20180721193908 69 36 4.0 6.0 0.00 0.17 0.17 90 1005.8
20180721193808 69 35 4.0 6.0 0.00 0.17 0.17 90 1005.8
20180721193709 69 32 4.0 6.0 0.00 0.17 0.17 90 1005.8
20180721193608 69 32 4.0 6.0 0.00 0.17 0.17 90 1005.8
20180721193508 69 33 3.0 6.0 0.00 0.17 0.17 90 1005.8
20180721193408 69 36 5.0 6.0 0.00 0.17 0.17 89 1005.8
20180721193308 69 32 5.0 5.0 0.00 0.17 0.17 89 1005.8
20180721193208 69 34 4.0 5.0 0.00 0.17 0.17 89 1005.8
20180721193109 69 35 4.0 5.0 0.00 0.17 0.17 90 1005.8
20180721193008 69 34 2.0 5.0 0.00 0.17 0.17 90 1005.8
20180721192908 69 31 4.0 5.0 0.00 0.17 0.17 90 1005.8
20180721192808 69 28 2.0 5.0 0.00 0.17 0.17 90 1005.8
20180721192708 69 24 3.0 5.0 0.00 0.17 0.17 90 1005.8
20180721192608 69 22 3.0 5.0 0.00 0.17 0.17 90 1005.8
20180721192509 69 15 4.0 5.0 0.00 0.17 0.17 90 1005.8
20180721192408 69 10 3.0 5.0 0.00 0.17 0.17 90 1005.8
20180721192309 69 7 3.0 5.0 0.00 0.17 0.17 90 1005.8
20180721192208 69 2 4.0 5.0 0.00 0.17 0.17 90 1005.8
20180721192108 69 357 4.0 5.0 0.00 0.17 0.17 92 1005.8
20180721192008 69 353 4.0 5.0 0.00 0.17 0.17 92 1005.8
20180721191909 69 356 3.0 6.0 0.00 0.17 0.17 92 1005.8
20180721191808 69 356 3.0 6.0 0.00 0.17 0.17 93 1005.8
20180721191708 69 357 3.0 6.0 0.00 0.17 0.17 93 1005.8
20180721191608 69 359 3.0 6.0 0.00 0.17 0.17 93 1005.8
20180721191508 69 359 3.0 6.0 0.00 0.17 0.17 93 1005.8
20180721191408 69 360 2.0 6.0 0.00 0.17 0.17 93 1005.8
20180721191309 69 3 3.0 6.0 0.00 0.17 0.17 93 1005.8
20180721191208 69 3 3.0 6.0 0.00 0.17 0.17 93 1005.8
20180721191108 69 5 4.0 6.0 0.00 0.17 0.17 93 1005.8
20180721191008 69 6 4.0 6.0 0.00 0.17 0.17 93 1005.8
20180721190908 69 4 3.0 6.0 0.00 0.17 0.17 93 1005.8
20180721190808 69 7 3.0 4.0 0.00 0.17 0.17 93 1005.8
20180721190709 69 7 2.0 6.0 0.00 0.17 0.17 93 1005.8
20180721190610 69 6 3.0 6.0 0.00 0.17 0.17 94 1005.8
20180721190508 69 6 3.0 6.0 0.00 0.17 0.17 93 1005.8
20180721190408 69 7 3.0 6.0 0.00 0.17 0.17 93 1005.8
20180721190308 69 5 3.0 6.0 0.00 0.17 0.17 93 1005.8
20180721190209 69 4 4.0 6.0 0.00 0.17 0.17 93 1005.8
20180721190109 69 4 4.0 6.0 0.00 0.17 0.17 94 1005.8
20180721190008 69 4 4.0 6.0 0.00 0.17 0.17 93 1005.8
20180721185908 69 5 3.0 6.0 0.00 0.17 0.17 93 1005.8
20180721185808 69 4 4.0 6.0 0.00 0.17 0.17 94 1005.8
20180721185708 69 4 3.0 6.0 0.00 0.17 0.17 94 1005.8
20180721185609 69 5 4.0 6.0 0.00 0.17 0.17 94 1005.8
20180721185508 69 7 4.0 6.0 0.00 0.17 0.17 94 1005.8
20180721185408 69 6 4.0 6.0 0.00 0.17 0.17 94 1005.8
20180721185308 69 6 4.0 6.0 0.00 0.17 0.17 94 1005.8
20180721185208 69 7 5.0 6.0 0.00 0.17 0.17 94 1005.8
20180721185108 69 8 4.0 6.0 0.00 0.17 0.17 94 1005.8
20180721185009 69 10 4.0 6.0 0.00 0.17 0.17 94 1005.8
20180721184908 69 11 4.0 6.0 0.00 0.17 0.17 94 1005.8
20180721184808 69 8 5.0 7.0 0.00 0.17 0.17 94 1005.8
20180721184708 69 10 2.0 7.0 0.00 0.17 0.17 94 1005.8
20180721184608 69 9 3.0 7.0 0.00 0.17 0.17 94 1005.8
20180721184508 69 8 3.0 7.0 0.00 0.17 0.17 94 1005.8
20180721184409 69 9 3.0 7.0 0.00 0.17 0.17 94 1005.8
20180721184308 69 9 3.0 7.0 0.00 0.17 0.17 94 1005.8
20180721184208 69 11 2.0 7.0 0.00 0.17 0.17 94 1005.8
20180721184108 69 8 3.0 7.0 0.00 0.17 0.17 94 1005.8
20180721184008 69 6 4.0 7.0 0.00 0.17 0.17 94 1005.8
20180721183908 69 5 4.0 7.0 0.00 0.17 0.17 94 1005.8
20180721183809 69 9 5.0 7.0 0.00 0.17 0.17 94 1005.8
20180721183708 69 9 4.0 6.0 0.00 0.17 0.17 94 1005.8
20180721183608 69 10 2.0 6.0 0.00 0.17 0.17 94 1005.8
20180721183508 69 9 3.0 6.0 0.00 0.17 0.17 94 1005.8
20180721183408 69 11 3.0 6.0 0.00 0.17 0.17 94 1005.8
20180721183309 69 10 3.0 8.0 0.00 0.17 0.17 94 1005.8
20180721183209 69 9 5.0 8.0 0.00 0.17 0.17 94 1005.8
20180721183108 69 13 4.0 8.0 0.00 0.17 0.17 94 1005.8
20180721183008 69 15 4.0 8.0 0.00 0.17 0.17 94 1005.8
20180721182908 69 15 3.0 8.0 0.00 0.17 0.17 93 1005.8
20180721182808 69 15 3.0 8.0 0.00 0.17 0.17 93 1005.8
20180721182709 69 16 5.0 8.0 0.00 0.17 0.17 93 1005.8
20180721182609 69 19 4.0 8.0 0.00 0.17 0.17 93 1005.8
20180721182508 69 22 6.0 8.0 0.00 0.17 0.17 93 1005.8
20180721182409 69 21 6.0 8.0 0.00 0.17 0.17 93 1005.8
20180721182308 69 23 3.0 8.0 0.00 0.17 0.17 94 1005.8
20180721182208 69 25 4.0 8.0 0.00 0.17 0.17 94 1005.8
20180721182109 69 22 3.0 8.0 0.00 0.17 0.17 93 1005.8
20180721182009 69 21 4.0 8.0 0.00 0.17 0.17 93 1005.8
20180721181908 69 21 4.0 8.0 0.00 0.17 0.17 93 1005.8
20180721181808 69 20 4.0 8.0 0.00 0.17 0.17 93 1005.8
20180721181708 69 16 3.0 8.0 0.00 0.17 0.17 93 1005.8
20180721181608 69 15 5.0 8.0 0.00 0.17 0.17 93 1005.8
20180721181509 69 14 5.0 8.0 0.00 0.17 0.17 93 1005.8
20180721181408 69 15 5.0 8.0 0.00 0.17 0.17 94 1005.8
20180721181308 69 13 3.0 5.0 0.00 0.17 0.17 94 1005.8
20180721181208 69 13 2.0 5.0 0.00 0.17 0.17 94 1005.8
20180721181108 69 15 2.0 5.0 0.00 0.17 0.17 94 1005.8
20180721181008 69 15 2.0 5.0 0.00 0.17 0.17 94 1005.8
20180721180909 69 20 3.0 6.0 0.00 0.17 0.17 94 1005.8
20180721180808 69 19 1.0 6.0 0.00 0.17 0.17 94 1005.8
20180721180708 69 19 2.0 6.0 0.00 0.17 0.17 94 1005.8
20180721180609 69 21 3.0 6.0 0.00 0.17 0.17 94 1005.8
20180721180508 69 21 3.0 6.0 0.00 0.17 0.17 94 1005.8
20180721180409 69 19 2.0 6.0 0.00 0.17 0.17 94 1005.8
20180721180309 69 19 2.0 6.0 0.00 0.17 0.17 94 1005.8
20180721180208 69 21 3.0 6.0 0.00 0.17 0.17 94 1005.8
20180721180108 69 19 4.0 6.0 0.00 0.17 0.17 94 1006.8
20180721180008 69 23 4.0 6.0 0.00 0.17 0.17 94 1006.8
20180721175908 69 19 3.0 6.0 0.00 0.17 0.17 94 1006.8
20180721175808 69 17 1.0 6.0 0.00 0.17 0.17 94 1006.8
20180721175708 69 19 4.0 6.0 0.00 0.17 0.17 94 1006.8
20180721175608 69 19 3.0 6.0 0.00 0.17 0.17 94 1006.8
20180721175508 69 18 3.0 6.0 0.00 0.17 0.17 94 1006.8
20180721175408 69 19 3.0 6.0 0.00 0.17 0.17 94 1006.8
20180721175308 69 21 4.0 6.0 0.00 0.17 0.17 94 1006.8
20180721175209 69 17 3.0 6.0 0.00 0.17 0.17 94 1006.8
20180721175109 69 14 4.0 6.0 0.00 0.17 0.17 94 1006.8
20180721175008 69 11 3.0 6.0 0.00 0.17 0.17 94 1006.8
20180721174908 69 12 4.0 6.0 0.00 0.17 0.17 94 1006.8
20180721174808 69 18 2.0 6.0 0.00 0.17 0.17 94 1006.8
20180721174708 69 19 2.0 6.0 0.00 0.17 0.17 94 1006.8
20180721174609 69 21 2.0 6.0 0.00 0.17 0.17 94 1006.8
20180721174509 69 27 2.0 7.0 0.00 0.17 0.17 94 1006.8
20180721174408 69 28 4.0 7.0 0.00 0.17 0.17 94 1006.8
20180721174308 69 31 3.0 7.0 0.00 0.17 0.17 94 1006.8
20180721174208 69 31 5.0 7.0 0.00 0.17 0.17 94 1006.8
20180721174108 69 34 5.0 7.0 0.00 0.17 0.17 94 1006.8
20180721174008 69 36 3.0 7.0 0.00 0.17 0.17 94 1006.8
20180721173908 69 33 2.0 8.0 0.00 0.17 0.17 94 1006.8
20180721173808 69 34 4.0 8.0 0.00 0.17 0.17 94 1006.8
20180721173708 69 30 4.0 8.0 0.00 0.17 0.17 94 1006.8
20180721173608 69 33 6.0 8.0 0.00 0.17 0.17 94 1006.8
20180721173508 69 30 3.0 8.0 0.00 0.17 0.17 94 1006.8
20180721173408 69 32 4.0 10.0 0.00 0.17 0.17 94 1006.8
20180721173308 69 32 3.0 10.0 0.00 0.17 0.17 94 1006.8
20180721173208 69 35 2.0 10.0 0.00 0.17 0.17 94 1006.8
20180721173108 69 37 4.0 10.0 0.00 0.17 0.17 94 1005.8
20180721173008 69 36 5.0 10.0 0.00 0.17 0.17 94 1005.8
20180721172908 69 40 4.0 10.0 0.00 0.17 0.17 94 1005.8
20180721172809 69 40 4.0 10.0 0.00 0.17 0.17 94 1005.8
20180721172708 69 41 4.0 10.0 0.00 0.17 0.17 94 1005.8
20180721172608 69 41 5.0 10.0 0.00 0.17 0.17 94 1005.8
20180721172508 69 41 6.0 10.0 0.00 0.17 0.17 95 1005.8
20180721172408 69 39 3.0 9.0 0.00 0.17 0.17 95 1005.8
20180721172308 69 39 7.0 9.0 0.00 0.17 0.17 95 1005.8
20180721172209 69 38 4.0 9.0 0.00 0.17 0.17 94 1005.8
20180721172108 69 39 5.0 9.0 0.00 0.17 0.17 94 1005.8
20180721172008 69 42 5.0 9.0 0.00 0.17 0.17 94 1005.8
20180721171908 69 40 5.0 7.0 0.00 0.17 0.17 94 1005.8
20180721171808 69 37 5.0 6.0 0.00 0.17 0.17 95 1005.8
20180721171709 69 37 5.0 6.0 0.00 0.17 0.17 95 1005.8
20180721171609 69 36 4.0 6.0 0.00 0.17 0.17 95 1005.8
20180721171508 69 34 2.0 6.0 0.00 0.17 0.17 95 1005.8
20180721171408 69 35 3.0 6.0 0.00 0.17 0.17 94 1005.8
20180721171308 69 31 3.0 6.0 0.00 0.17 0.17 94 1005.8
20180721171208 69 35 4.0 6.0 0.00 0.17 0.17 94 1005.8
20180721171108 69 34 4.0 6.0 0.00 0.17 0.17 94 1005.8
20180721171009 69 34 2.0 6.0 0.00 0.17 0.17 94 1005.8
20180721170908 69 35 2.0 6.0 0.00 0.17 0.17 94 1005.8
20180721170808 69 34 4.0 6.0 0.00 0.17 0.17 94 1005.8
20180721170708 69 36 4.0 6.0 0.00 0.17 0.17 94 1005.8
20180721170608 69 35 1.0 9.0 0.00 0.17 0.17 94 1005.8
20180721170508 69 35 3.0 9.0 0.00 0.17 0.17 94 1005.8
20180721170408 69 36 2.0 9.0 0.00 0.17 0.17 94 1005.8
20180721170308 69 39 3.0 9.0 0.00 0.17 0.17 94 1005.8
20180721170208 69 33 4.0 9.0 0.00 0.17 0.17 94 1005.8
20180721170108 69 31 3.0 9.0 0.00 0.17 0.17 94 1005.8
20180721170009 69 32 3.0 9.0 0.00 0.17 0.17 94 1005.8
20180721165908 69 31 3.0 9.0 0.00 0.17 0.17 94 1005.8
20180721165808 69 30 4.0 9.0 0.00 0.17 0.17 94 1005.8
20180721165708 69 28 6.0 9.0 0.00 0.17 0.17 94 1005.8
20180721165608 69 30 4.0 7.0 0.00 0.17 0.17 94 1005.8
20180721165508 70 32 3.0 7.0 0.00 0.17 0.17 94 1005.8
20180721165408 69 31 6.0 7.0 0.00 0.17 0.17 94 1005.8
20180721165309 69 29 5.0 6.0 0.00 0.17 0.17 94 1005.8
20180721165208 70 39 5.0 6.0 0.00 0.17 0.17 94 1005.8
20180721165108 70 45 1.0 6.0 0.00 0.17 0.17 94 1005.8
20180721165008 70 44 1.0 6.0 0.00 0.17 0.17 94 1005.8
20180721164908 70 46 2.0 6.0 0.00 0.17 0.17 93 1005.8
20180721164808 70 45 3.0 6.0 0.00 0.17 0.17 93 1005.8
20180721164709 69 45 4.0 6.0 0.00 0.17 0.17 93 1005.8
20180721164608 69 41 4.0 8.0 0.00 0.17 0.17 93 1005.8
20180721164508 69 37 4.0 8.0 0.00 0.17 0.17 93 1005.8
20180721164408 69 39 3.0 8.0 0.00 0.17 0.17 93 1005.8
20180721164308 69 43 3.0 8.0 0.00 0.17 0.17 93 1005.8
20180721164209 70 40 1.0 8.0 0.00 0.17 0.17 93 1005.8
20180721164109 70 40 4.0 8.0 0.00 0.17 0.17 93 1005.8
20180721164008 70 41 2.0 8.0 0.00 0.17 0.17 93 1005.8
20180721163908 70 45 3.0 8.0 0.00 0.17 0.17 93 1005.8
20180721163808 70 48 4.0 8.0 0.00 0.17 0.17 93 1005.8
20180721163708 70 51 2.0 8.0 0.00 0.17 0.17 93 1005.8
20180721163608 69 52 4.0 8.0 0.00 0.17 0.17 93 1005.8
20180721163509 69 54 3.0 8.0 0.00 0.17 0.17 93 1005.8
20180721163408 69 52 4.0 8.0 0.00 0.17 0.17 93 1005.8
20180721163308 69 51 5.0 8.0 0.00 0.17 0.17 93 1005.8
20180721163208 69 49 6.0 8.0 0.00 0.17 0.17 93 1005.8
20180721163108 69 48 5.0 8.0 0.00 0.17 0.17 93 1005.8
20180721163008 69 48 5.0 8.0 0.00 0.17 0.17 93 1005.8
20180721162909 69 43 5.0 8.0 0.00 0.17 0.17 93 1005.8
20180721162808 69 38 5.0 8.0 0.00 0.17 0.17 93 1005.8
20180721162708 69 33 4.0 8.0 0.00 0.17 0.17 93 1005.8
20180721162609 69 27 4.0 8.0 0.00 0.17 0.17 93 1005.8
20180721162508 69 20 6.0 8.0 0.00 0.17 0.17 93 1005.8
20180721162409 69 13 1.0 6.0 0.00 0.17 0.17 93 1005.8
20180721162308 69 13 3.0 6.0 0.00 0.17 0.17 93 1005.8
20180721162208 69 13 2.0 6.0 0.00 0.17 0.17 93 1005.8
20180721162108 69 13 2.0 6.0 0.00 0.17 0.17 93 1005.8
20180721162008 69 10 2.0 6.0 0.00 0.17 0.17 93 1005.8
20180721161908 69 10 2.0 6.0 0.00 0.17 0.17 93 1005.8
20180721161808 69 9 4.0 6.0 0.00 0.17 0.17 93 1005.8
20180721161708 69 5 3.0 6.0 0.00 0.17 0.17 93 1005.8
20180721161608 69 7 4.0 6.0 0.00 0.17 0.17 93 1005.8
20180721161508 69 9 3.0 6.0 0.00 0.17 0.17 93 1005.8
20180721161408 69 10 3.0 6.0 0.00 0.17 0.17 93 1005.8
20180721161308 69 12 3.0 6.0 0.00 0.17 0.17 93 1005.8
20180721161209 69 9 3.0 6.0 0.00 0.17 0.17 93 1005.8
20180721161110 69 8 3.0 6.0 0.00 0.17 0.17 92 1005.8
20180721161008 69 8 3.0 6.0 0.00 0.17 0.17 92 1005.8
20180721160908 69 10 4.0 6.0 0.00 0.17 0.17 92 1005.8
20180721160808 69 10 4.0 6.0 0.00 0.17 0.17 92 1005.8
20180721160708 69 10 5.0 6.0 0.00 0.17 0.17 92 1005.8
20180721160609 69 12 6.0 6.0 0.00 0.17 0.17 92 1005.8
20180721160508 69 13 4.0 6.0 0.00 0.17 0.17 92 1005.8
20180721160408 69 11 4.0 6.0 0.00 0.17 0.17 92 1005.8
20180721160308 69 8 3.0 6.0 0.00 0.17 0.17 92 1005.8
20180721160208 69 12 3.0 6.0 0.00 0.17 0.17 92 1005.8
20180721160109 69 13 3.0 6.0 0.00 0.17 0.17 92 1005.8
20180721160009 69 13 2.0 6.0 0.00 0.17 0.17 92 1005.8
20180721155908 69 14 3.0 6.0 0.00 0.17 0.17 92 1005.8
20180721155808 69 16 6.0 6.0 0.00 0.17 0.17 92 1005.8
20180721155708 69 15 4.0 6.0 0.00 0.17 0.17 92 1005.8
20180721155608 69 15 2.0 6.0 0.00 0.17 0.17 92 1005.8
20180721155508 69 16 3.0 6.0 0.00 0.17 0.17 92 1005.8
20180721155409 69 17 4.0 6.0 0.00 0.17 0.17 92 1005.8
20180721155308 69 17 4.0 6.0 0.00 0.17 0.17 92 1005.8
20180721155208 69 17 4.0 6.0 0.00 0.17 0.17 92 1005.8
20180721155108 69 13 4.0 6.0 0.00 0.17 0.17 92 1005.8
20180721155008 69 14 4.0 6.0 0.00 0.17 0.17 92 1005.8
20180721154909 69 10 5.0 6.0 0.00 0.17 0.17 92 1005.8
20180721154808 69 7 5.0 6.0 0.00 0.17 0.17 91 1005.8
20180721154708 69 12 5.0 6.0 0.00 0.17 0.17 91 1005.8
20180721154608 69 12 3.0 6.0 0.00 0.17 0.17 91 1005.8
20180721154508 69 13 3.0 6.0 0.00 0.17 0.17 91 1005.8
20180721154408 69 10 3.0 6.0 0.00 0.17 0.17 91 1005.8
20180721154308 69 10 4.0 6.0 0.00 0.17 0.17 91 1005.8
20180721154208 69 12 5.0 6.0 0.00 0.17 0.17 91 1005.8
20180721154108 69 17 3.0 6.0 0.00 0.17 0.17 91 1005.8
20180721154008 69 14 3.0 5.0 0.00 0.17 0.17 91 1005.8
20180721153908 69 18 4.0 5.0 0.00 0.17 0.17 91 1005.8
20180721153810 69 19 3.0 5.0 0.00 0.17 0.17 91 1005.8
20180721153708 69 19 4.0 5.0 0.00 0.17 0.17 91 1005.8
20180721153608 69 19 4.0 5.0 0.00 0.17 0.17 91 1005.8
20180721153508 69 20 1.0 5.0 0.00 0.17 0.17 91 1005.8
20180721153408 69 23 1.0 4.0 0.00 0.17 0.17 91 1005.8
20180721153308 69 23 3.0 4.0 0.00 0.17 0.17 91 1005.8
20180721153208 69 22 1.0 5.0 0.00 0.17 0.17 91 1005.8
20180721153108 69 25 2.0 5.0 0.00 0.17 0.17 91 1006.8
20180721153008 69 30 2.0 6.0 0.00 0.17 0.17 91 1006.8
20180721152908 69 29 2.0 6.0 0.00 0.17 0.17 90 1006.8
20180721152808 69 31 4.0 6.0 0.00 0.17 0.17 90 1006.8
20180721152708 69 35 4.0 6.0 0.00 0.17 0.17 90 1006.8
20180721152608 69 34 3.0 6.0 0.00 0.17 0.17 91 1006.8
20180721152508 69 32 1.0 6.0 0.00 0.17 0.17 91 1006.8
20180721152408 69 36 2.0 6.0 0.00 0.17 0.17 90 1006.8
20180721152308 69 38 4.0 6.0 0.00 0.17 0.17 90 1006.8
20180721152208 69 43 3.0 6.0 0.00 0.17 0.17 91 1006.8
20180721152108 69 45 2.0 6.0 0.00 0.17 0.17 91 1006.8
20180721152009 69 49 2.0 6.0 0.00 0.17 0.17 91 1006.8
20180721151909 69 62 2.0 6.0 0.00 0.17 0.17 91 1006.8
20180721151808 69 61 2.0 6.0 0.00 0.17 0.17 91 1006.8
20180721151708 69 53 2.0 6.0 0.00 0.17 0.17 91 1006.8
20180721151608 69 52 4.0 6.0 0.00 0.17 0.17 90 1005.8
20180721151508 69 56 4.0 6.0 0.00 0.17 0.17 90 1005.8
20180721151408 69 58 3.0 6.0 0.00 0.17 0.17 90 1005.8
20180721151309 69 64 3.0 6.0 0.00 0.17 0.17 90 1005.8
20180721151208 69 50 4.0 6.0 0.00 0.17 0.17 90 1005.8
20180721151108 69 43 4.0 6.0 0.00 0.17 0.17 90 1005.8
20180721151008 69 36 6.0 6.0 0.00 0.17 0.17 91 1005.8
20180721150908 69 11 2.0 4.0 0.00 0.17 0.17 91 1005.8
20180721150809 69 11 2.0 4.0 0.00 0.17 0.17 91 1005.8
20180721150708 69 11 2.0 4.0 0.00 0.17 0.17 91 1005.8
20180721150608 69 19 4.0 4.0 0.00 0.17 0.17 91 1005.8
20180721150508 69 20 4.0 4.0 0.00 0.17 0.17 91 1005.8
20180721150408 69 21 4.0 4.0 0.00 0.17 0.17 91 1005.8
20180721150308 69 21 4.0 4.0 0.00 0.17 0.17 91 1005.8
20180721150209 69 24 2.0 4.0 0.00 0.17 0.17 91 1005.8
20180721150108 69 24 2.0 4.0 0.00 0.17 0.17 91 1005.8
20180721150008 69 24 5.0 4.0 0.00 0.17 0.17 91 1005.8
20180721145908 69 24 2.0 4.0 0.00 0.17 0.17 91 1005.8
20180721145808 69 22 2.0 4.0 0.00 0.17 0.17 91 1005.8
20180721145708 69 22 2.0 4.0 0.00 0.17 0.17 91 1005.8
20180721145609 69 26 2.0 4.0 0.00 0.17 0.17 91 1005.8
20180721145508 69 30 5.0 4.0 0.00 0.17 0.17 91 1005.8
20180721145408 69 29 2.0 4.0 0.00 0.17 0.17 91 1005.8
20180721145308 69 24 2.0 4.0 0.00 0.17 0.17 92 1005.8
20180721145208 69 24 2.0 4.0 0.00 0.17 0.17 92 1005.8
20180721145108 69 22 3.0 5.0 0.00 0.17 0.17 91 1005.8
20180721145008 69 26 2.0 5.0 0.00 0.17 0.17 91 1005.8
20180721144908 69 26 2.0 5.0 0.00 0.17 0.17 92 1005.8
20180721144808 69 29 1.0 5.0 0.00 0.17 0.17 92 1005.8
20180721144708 69 34 3.0 5.0 0.00 0.17 0.17 92 1005.8
20180721144608 69 29 2.0 6.0 0.00 0.17 0.17 92 1005.8
20180721144508 69 30 2.0 8.0 0.00 0.17 0.17 92 1005.8
20180721144409 69 29 2.0 8.0 0.00 0.17 0.17 92 1005.8
20180721144308 69 31 1.0 8.0 0.00 0.17 0.17 92 1005.8
20180721144208 69 32 3.0 8.0 0.00 0.17 0.17 92 1005.8
20180721144108 69 33 4.0 8.0 0.00 0.17 0.17 92 1005.8
20180721144008 69 33 3.0 8.0 0.00 0.17 0.17 92 1005.8
20180721143908 69 35 4.0 8.0 0.00 0.17 0.17 92 1005.8
20180721143809 69 38 3.0 9.0 0.00 0.17 0.17 92 1005.8
20180721143708 69 37 4.0 9.0 0.00 0.17 0.17 92 1005.8
20180721143608 69 43 4.0 9.0 0.00 0.17 0.17 92 1005.8
20180721143508 69 42 4.0 9.0 0.00 0.17 0.17 92 1005.8
20180721143408 69 39 2.0 9.0 0.00 0.17 0.17 92 1005.8
20180721143308 69 39 2.0 9.0 0.00 0.17 0.17 92 1005.8
20180721143208 69 41 3.0 9.0 0.00 0.17 0.17 92 1005.8
20180721143108 69 44 3.0 9.0 0.00 0.17 0.17 92 1005.8
20180721143008 69 45 5.0 9.0 0.00 0.17 0.17 92 1005.8
20180721142908 69 44 8.0 9.0 0.00 0.17 0.17 92 1005.8
20180721142808 69 47 7.0 9.0 0.00 0.17 0.17 92 1005.8
20180721142709 69 45 7.0 9.0 0.00 0.17 0.17 92 1005.8
20180721142608 69 38 3.0 7.0 0.00 0.17 0.17 92 1005.8
20180721142508 69 38 3.0 7.0 0.00 0.17 0.17 92 1005.8
20180721142408 69 42 4.0 7.0 0.00 0.17 0.17 92 1005.8
20180721142308 69 47 5.0 7.0 0.00 0.17 0.17 91 1005.8
20180721142208 69 46 4.0 10.0 0.00 0.17 0.17 92 1005.8
20180721142108 69 42 4.0 10.0 0.00 0.17 0.17 92 1005.8
20180721142008 69 40 4.0 10.0 0.00 0.17 0.17 91 1005.8
20180721141908 69 41 5.0 10.0 0.00 0.17 0.17 91 1005.8
20180721141808 69 38 5.0 10.0 0.00 0.17 0.17 91 1005.8
20180721141708 69 39 4.0 10.0 0.00 0.17 0.17 91 1005.8
20180721141608 69 39 4.0 10.0 0.00 0.17 0.17 91 1004.8
20180721141509 69 38 4.0 10.0 0.00 0.17 0.17 91 1004.8
20180721141408 69 39 3.0 10.0 0.00 0.17 0.17 91 1004.8
20180721141308 69 44 6.0 11.0 0.00 0.17 0.17 91 1004.8
20180721141208 69 49 5.0 11.0 0.00 0.17 0.17 91 1004.8
20180721141108 69 47 4.0 11.0 0.00 0.17 0.17 91 1004.8
20180721141008 69 48 2.0 11.0 0.00 0.17 0.17 91 1004.8
20180721140909 69 49 3.0 11.0 0.00 0.17 0.17 90 1004.8
20180721140808 69 51 4.0 11.0 0.00 0.17 0.17 90 1004.8
20180721140708 69 51 7.0 11.0 0.00 0.17 0.17 90 1004.8
20180721140608 69 53 7.0 11.0 0.00 0.17 0.17 90 1004.8
20180721140508 69 55 8.0 11.0 0.00 0.17 0.17 90 1004.8
20180721140408 69 56 9.0 11.0 0.00 0.17 0.17 90 1004.8
20180721140309 69 52 6.0 11.0 0.00 0.17 0.17 90 1004.8
20180721140208 69 47 6.0 11.0 0.00 0.17 0.17 90 1004.8
20180721140108 69 52 7.0 11.0 0.00 0.17 0.17 90 1004.8
20180721140008 69 50 6.0 11.0 0.00 0.17 0.17 90 1004.8
20180721135908 69 49 7.0 11.0 0.00 0.17 0.17 90 1004.8
20180721135808 69 47 8.0 11.0 0.00 0.17 0.17 90 1004.8
20180721135708 69 45 7.0 9.0 0.00 0.17 0.17 90 1004.8
20180721135608 69 41 6.0 9.0 0.00 0.17 0.17 91 1004.8
20180721135508 69 42 4.0 8.0 0.00 0.17 0.17 91 1004.8
20180721135408 69 41 4.0 8.0 0.00 0.17 0.17 91 1004.8
20180721135308 69 40 3.0 8.0 0.00 0.17 0.17 91 1004.8
20180721135208 69 39 6.0 8.0 0.00 0.17 0.17 91 1004.8
20180721135108 69 33 5.0 7.0 0.00 0.17 0.17 91 1004.8
20180721135008 69 34 4.0 7.0 0.00 0.17 0.17 92 1004.8
20180721134909 69 31 2.0 7.0 0.00 0.17 0.17 92 1004.8
20180721134808 69 31 2.0 7.0 0.00 0.17 0.17 92 1004.8
20180721134708 69 29 4.0 7.0 0.00 0.17 0.17 92 1004.8
20180721134608 69 30 3.0 6.0 0.00 0.17 0.17 92 1005.8
20180721134508 69 32 3.0 6.0 0.00 0.17 0.17 92 1005.8
20180721134408 69 32 4.0 6.0 0.00 0.17 0.17 91 1005.8
20180721134308 69 31 3.0 6.0 0.00 0.17 0.17 92 1005.8
20180721134208 69 31 4.0 6.0 0.00 0.17 0.17 91 1005.8
20180721134108 69 34 4.0 6.0 0.00 0.17 0.17 91 1005.8
20180721134008 69 33 3.0 6.0 0.00 0.17 0.17 91 1005.8
20180721133908 69 39 3.0 6.0 0.00 0.17 0.17 91 1005.8
20180721133808 69 41 2.0 10.0 0.00 0.17 0.17 91 1005.8
20180721133708 69 42 3.0 10.0 0.00 0.17 0.17 91 1005.8
20180721133608 69 42 5.0 10.0 0.00 0.17 0.17 91 1005.8
20180721133508 69 40 4.0 10.0 0.00 0.17 0.17 91 1005.8
20180721133409 69 38 4.0 10.0 0.00 0.17 0.17 91 1005.8
20180721133308 69 32 4.0 10.0 0.00 0.17 0.17 91 1005.8
20180721133208 69 32 4.0 10.0 0.00 0.17 0.17 91 1005.8
20180721133108 69 29 3.0 10.0 0.00 0.17 0.17 91 1005.8
20180721133008 69 27 5.0 10.0 0.00 0.17 0.17 91 1005.8
20180721132909 69 22 5.0 10.0 0.00 0.17 0.17 92 1005.8
20180721132809 69 18 4.0 6.0 0.00 0.17 0.17 92 1005.8
20180721132708 69 16 2.0 6.0 0.00 0.17 0.17 92 1005.8
20180721132608 69 15 2.0 6.0 0.00 0.17 0.17 92 1005.8
20180721132508 69 14 3.0 7.0 0.00 0.17 0.17 92 1005.8
20180721132408 69 18 5.0 7.0 0.00 0.17 0.17 92 1005.8
20180721132308 69 26 2.0 7.0 0.00 0.17 0.17 92 1005.8
20180721132209 69 32 3.0 7.0 0.00 0.17 0.17 92 1005.8
20180721132108 69 37 4.0 7.0 0.00 0.17 0.17 92 1005.8
20180721132008 69 39 3.0 7.0 0.00 0.17 0.17 92 1005.8
20180721131909 69 43 3.0 7.0 0.00 0.17 0.17 92 1005.8
20180721131808 69 43 3.0 7.0 0.00 0.17 0.17 92 1005.8
20180721131709 69 44 2.0 7.0 0.00 0.17 0.17 91 1005.8
20180721131608 69 45 5.0 7.0 0.00 0.17 0.17 91 1004.8
20180721131508 69 46 5.0 7.0 0.00 0.17 0.17 91 1004.8
20180721131408 69 46 5.0 7.0 0.00 0.17 0.17 91 1004.8
20180721131308 69 45 6.0 7.0 0.00 0.17 0.17 91 1004.8
20180721131208 69 44 4.0 7.0 0.00 0.17 0.17 91 1004.8
20180721131108 69 43 6.0 7.0 0.00 0.17 0.17 91 1004.8
20180721131008 69 47 4.0 7.0 0.00 0.17 0.17 92 1004.8
20180721130908 69 47 4.0 7.0 0.00 0.17 0.17 91 1004.8
20180721130808 69 45 4.0 7.0 0.00 0.17 0.17 91 1004.8
20180721130708 69 44 4.0 7.0 0.00 0.17 0.17 91 1004.8
20180721130608 69 44 4.0 6.0 0.00 0.17 0.17 91 1004.8
20180721130508 69 41 3.0 8.0 0.00 0.17 0.17 91 1004.8
20180721130408 69 41 3.0 8.0 0.00 0.17 0.17 91 1004.8
20180721130308 69 42 4.0 8.0 0.04 0.17 0.17 91 1004.8
20180721130208 69 39 3.0 8.0 0.04 0.17 0.17 90 1004.8
20180721130108 69 38 4.0 8.0 0.04 0.17 0.17 91 1005.8
20180721130008 69 36 4.0 9.0 0.04 0.17 0.17 90 1005.8
20180721125909 69 36 4.0 9.0 0.04 0.17 0.17 90 1005.8
20180721125808 69 39 5.0 9.0 0.04 0.17 0.17 90 1005.8
20180721125708 69 41 4.0 9.0 0.04 0.17 0.17 90 1005.8
20180721125608 69 41 5.0 10.0 0.04 0.17 0.17 90 1005.8
20180721125508 69 42 6.0 10.0 0.04 0.17 0.17 89 1005.8
20180721125408 69 44 6.0 10.0 0.04 0.17 0.17 89 1005.8
20180721125309 69 42 6.0 10.0 0.04 0.17 0.17 89 1005.8
20180721125208 69 48 5.0 10.0 0.04 0.17 0.17 88 1005.8
20180721125108 69 49 7.0 10.0 0.04 0.17 0.17 89 1005.8
20180721125008 69 51 7.0 10.0 0.04 0.17 0.17 89 1005.8
20180721124908 69 50 4.0 10.0 0.04 0.17 0.17 89 1005.8
20180721124808 69 44 5.0 10.0 0.04 0.17 0.17 89 1005.8
20180721124709 69 43 6.0 10.0 0.04 0.17 0.17 90 1005.8
20180721124608 69 42 4.0 7.0 0.04 0.17 0.17 90 1005.8
20180721124508 69 45 3.0 7.0 0.04 0.17 0.17 91 1005.8
20180721124408 69 45 3.0 9.0 0.04 0.17 0.17 91 1005.8
20180721124308 69 47 4.0 9.0 0.04 0.17 0.17 91 1005.8
20180721124208 69 43 2.0 9.0 0.04 0.17 0.17 91 1005.8
20180721124108 69 43 4.0 9.0 0.04 0.17 0.17 91 1005.8
20180721124008 69 46 4.0 9.0 0.04 0.17 0.17 91 1005.8
20180721123908 69 48 4.0 9.0 0.04 0.17 0.17 92 1005.8
20180721123808 69 54 5.0 9.0 0.04 0.17 0.17 92 1005.8
20180721123708 69 56 5.0 9.0 0.04 0.17 0.17 92 1005.8
20180721123608 69 61 3.0 9.0 0.04 0.17 0.17 92 1005.8
20180721123508 69 64 5.0 9.0 0.04 0.17 0.17 93 1005.8
20180721123408 69 87 4.0 7.0 0.04 0.17 0.17 93 1005.8
20180721123308 69 113 4.0 7.0 0.04 0.17 0.17 93 1005.8
20180721123208 69 121 4.0 7.0 0.04 0.17 0.17 93 1005.8
20180721123108 69 128 5.0 7.0 0.04 0.17 0.17 93 1005.8
20180721123009 70 144 2.0 6.0 0.04 0.17 0.17 94 1005.8
20180721122909 69 149 2.0 6.0 0.04 0.17 0.17 93 1005.8
20180721122808 69 151 2.0 6.0 0.04 0.17 0.17 93 1005.8
20180721122708 69 145 1.0 6.0 0.04 0.17 0.17 94 1005.8
20180721122608 69 134 0.0 6.0 0.04 0.17 0.17 94 1005.8
20180721122508 69 127 4.0 6.0 0.04 0.17 0.17 94 1005.8
20180721122409 69 111 4.0 6.0 0.04 0.17 0.17 94 1005.8
20180721122308 69 89 3.0 3.0 0.04 0.17 0.17 94 1005.8
20180721122208 69 65 1.0 3.0 0.04 0.17 0.17 94 1005.8
20180721122108 70 48 1.0 3.0 0.04 0.17 0.17 94 1005.8
20180721122008 69 33 1.0 3.0 0.04 0.17 0.17 93 1005.8
20180721121908 70 20 1.0 3.0 0.04 0.17 0.17 93 1005.8
20180721121809 70 11 1.0 4.0 0.04 0.17 0.17 93 1005.8
20180721121708 70 358 2.0 4.0 0.04 0.17 0.17 92 1005.8
20180721121608 70 347 2.0 4.0 0.04 0.17 0.17 92 1004.8
20180721121508 70 338 2.0 4.0 0.04 0.17 0.17 91 1004.8
20180721121408 70 329 1.0 4.0 0.04 0.17 0.17 91 1004.8
20180721121308 70 324 2.0 4.0 0.04 0.17 0.17 91 1004.8
20180721121208 69 318 2.0 4.0 0.04 0.17 0.17 90 1004.8
20180721121108 69 314 2.0 4.0 0.04 0.17 0.17 90 1004.8
20180721121008 69 310 3.0 4.0 0.04 0.17 0.17 90 1004.8
20180721120908 69 307 3.0 4.0 0.04 0.17 0.17 90 1004.8
20180721120808 69 306 3.0 4.0 0.04 0.17 0.17 90 1004.8
20180721120708 69 302 3.0 4.0 0.04 0.17 0.17 90 1004.8
20180721120608 69 299 3.0 4.0 0.04 0.17 0.17 91 1004.8
20180721120508 69 296 2.0 3.0 0.04 0.17 0.17 91 1004.8
20180721120408 69 291 2.0 4.0 0.04 0.17 0.17 91 1004.8
20180721120308 69 292 1.0 4.0 0.00 0.13 0.13 91 1004.8
20180721120208 69 292 1.0 4.0 0.00 0.13 0.13 91 1004.8
20180721120108 69 288 2.0 4.0 0.00 0.13 0.13 91 1004.8
20180721120007 70 284 1.0 4.0 0.00 0.13 0.13 91 1004.8
20180721115908 69 281 2.0 4.0 0.00 0.13 0.13 91 1004.8
20180721115808 69 273 2.0 4.0 0.00 0.13 0.13 91 1004.8
20180721115708 69 271 2.0 4.0 0.00 0.13 0.13 91 1004.8
20180721115608 69 269 1.0 4.0 0.00 0.13 0.13 91 1004.8
20180721115508 70 264 2.0 4.0 0.00 0.13 0.13 91 1004.8
20180721115407 70 263 0.0 4.0 0.00 0.13 0.13 91 1004.8
20180721115308 70 261 0.0 4.0 0.00 0.13 0.13 91 1004.8
20180721115208 69 256 2.0 4.0 0.00 0.13 0.13 90 1004.8
20180721115108 69 250 2.0 4.0 0.00 0.13 0.13 90 1004.8
20180721115008 69 242 2.0 4.0 0.00 0.13 0.13 91 1004.8
20180721114908 69 237 2.0 4.0 0.00 0.13 0.13 91 1004.8
20180721114808 69 238 1.0 3.0 0.00 0.13 0.13 91 1004.8
20180721114708 69 238 0.0 3.0 0.00 0.13 0.13 92 1005.8
20180721114608 69 238 1.0 3.0 0.00 0.13 0.13 91 1005.8
20180721114508 69 245 1.0 3.0 0.00 0.13 0.13 92 1005.8
20180721114408 69 249 1.0 3.0 0.00 0.13 0.13 91 1005.8
20180721114308 69 252 1.0 3.0 0.00 0.13 0.13 91 1005.8
20180721114208 70 257 2.0 3.0 0.00 0.13 0.13 91 1005.8
20180721114108 69 261 2.0 3.0 0.00 0.13 0.13 91 1005.8
20180721114008 70 268 1.0 3.0 0.00 0.13 0.13 91 1005.8
20180721113908 69 269 1.0 3.0 0.00 0.13 0.13 90 1005.8
20180721113808 70 266 2.0 3.0 0.00 0.13 0.13 91 1005.8
20180721113708 70 254 3.0 3.0 0.00 0.13 0.13 91 1005.8
20180721113608 69 250 3.0 3.0 0.00 0.13 0.13 91 1005.8
20180721113508 69 241 2.0 3.0 0.00 0.13 0.13 91 1005.8
20180721113408 70 223 1.0 2.0 0.00 0.13 0.13 92 1005.8
20180721113308 69 219 1.0 2.0 0.00 0.13 0.13 92 1005.8
20180721113208 69 216 0.0 2.0 0.00 0.13 0.13 92 1005.8
20180721113108 69 216 0.0 2.0 0.00 0.13 0.13 92 1005.8
20180721113008 69 218 1.0 2.0 0.00 0.13 0.13 91 1005.8
20180721112908 69 218 1.0 2.0 0.00 0.13 0.13 91 1005.8
20180721112808 69 218 1.0 2.0 0.00 0.13 0.13 91 1005.8
20180721112708 69 226 1.0 2.0 0.00 0.13 0.13 91 1005.8
20180721112608 69 230 1.0 2.0 0.00 0.13 0.13 91 1005.8
20180721112507 69 230 1.0 2.0 0.00 0.13 0.13 91 1005.8
20180721112408 69 235 1.0 2.0 0.00 0.13 0.13 90 1005.8
20180721112308 69 240 1.0 2.0 0.04 0.13 0.13 90 1005.8
20180721112208 70 245 1.0 1.0 0.04 0.13 0.13 91 1005.8
20180721112108 70 259 0.0 1.0 0.04 0.13 0.13 90 1005.8
20180721112008 70 270 0.0 1.0 0.04 0.13 0.13 90 1005.8
20180721111908 70 270 0.0 1.0 0.04 0.13 0.13 90 1005.8
20180721111808 70 270 0.0 1.0 0.04 0.13 0.13 90 1005.8
20180721111708 70 297 0.0 2.0 0.04 0.13 0.13 91 1005.8
20180721111608 70 284 0.0 2.0 0.04 0.13 0.13 91 1004.8
20180721111508 70 280 0.0 2.0 0.04 0.13 0.13 90 1004.8
20180721111409 70 280 0.0 2.0 0.04 0.13 0.13 89 1004.8
20180721111308 70 278 0.0 2.0 0.04 0.13 0.13 89 1004.8
20180721111208 70 263 0.0 2.0 0.04 0.13 0.13 89 1004.8
20180721111108 70 258 0.0 2.0 0.09 0.13 0.13 88 1004.8
20180721111008 70 255 0.0 2.0 0.09 0.13 0.13 89 1004.8
20180721110908 70 246 1.0 2.0 0.09 0.13 0.13 89 1004.8
20180721110808 69 309 1.0 2.0 0.09 0.13 0.13 89 1004.8
20180721110707 69 86 1.0 3.0 0.09 0.13 0.13 89 1004.8
20180721110608 70 80 0.0 3.0 0.09 0.13 0.13 90 1004.8
20180721110508 70 72 0.0 3.0 0.09 0.13 0.13 90 1004.8
20180721110408 70 64 0.0 3.0 0.09 0.13 0.13 90 1004.8
20180721110308 70 56 1.0 3.0 0.09 0.13 0.13 90 1004.8
20180721110209 70 49 0.0 3.0 0.09 0.13 0.13 88 1004.8
20180721110108 70 47 1.0 3.0 0.09 0.13 0.13 88 1005.8